M I D A S
Marine Information and Data Acquisition System
Tripno 1027 of the Zeeleeuw from 2006-01-23 07:41:22 to 2006-01-23 14:12:29
Back to CruiseResearch ActivitiesStationsMapUnderway DataData graphs

EquipmentUnitsComment
TimeDGPSUTC
LatitudeDGPSDM.mWGS84
LongitudeDGPSDM.mWGS84
TemperatureSBE03/SBE38deg celciusITS90
ConductivitySBE21S/mITS90
SalinitySBE21 Practical Salinity Units
ChlorophylAChelsea fluorimeterg/lCalibrated in Aceton
Missing or incorrect values are displayed as -999
Sea surface data collected by the RV Zeeleeuw from 2006-01-23 07:10:03 to 2006-01-23 14:18:58
                                                                                    Next 1000 lines
Time Latitude Longitude Temperature Conductivity Salinity ChlorophylA
2006-01-23 07:10:13 51°13.597 2°56.095 -999 4.782647 33.34573 -1.388018
2006-01-23 07:10:18 51°13.598 2°56.095 -999 4.782647 33.34573 -1.388018
2006-01-23 07:10:23 51°13.598 2°56.095 -999 4.782647 33.346311 -1.388018
2006-01-23 07:10:28 51°13.598 2°56.095 -999 4.782647 33.346311 -1.388018
2006-01-23 07:10:33 51°13.598 2°56.095 -999 4.782543 33.34608 -1.388018
2006-01-23 07:10:38 51°13.598 2°56.095 -999 4.782543 33.345499 -1.388018
2006-01-23 07:10:43 51°13.598 2°56.095 -999 4.782543 33.34608 -1.388018
2006-01-23 07:10:48 51°13.598 2°56.095 -999 4.782543 33.34608 -1.388018
2006-01-23 07:10:53 51°13.598 2°56.096 -999 4.782543 33.34608 -1.388018
2006-01-23 07:10:58 51°13.598 2°56.096 -999 4.782543 33.34608 -1.388018
2006-01-23 07:11:03 51°13.598 2°56.096 -999 4.78244 33.345849 -1.388018
2006-01-23 07:11:08 51°13.598 2°56.096 -999 4.78244 33.346429 -1.388018
2006-01-23 07:11:13 51°13.598 2°56.096 -999 4.78244 33.346429 -1.388018
2006-01-23 07:11:18 51°13.598 2°56.096 -999 4.782336 33.345618 -1.388018
2006-01-23 07:11:23 51°13.598 2°56.096 -999 4.782336 33.346198 -1.388018
2006-01-23 07:11:28 51°13.598 2°56.096 -999 4.782336 33.346198 -1.388018
2006-01-23 07:11:33 51°13.598 2°56.096 -999 4.782336 33.346779 -1.388018
2006-01-23 07:11:38 51°13.598 2°56.096 -999 4.782232 33.345387 -1.388018
2006-01-23 07:11:43 51°13.598 2°56.096 -999 4.782232 33.345967 -1.388018
2006-01-23 07:11:49 51°13.598 2°56.095 -999 4.782232 33.345967 -1.388018
2006-01-23 07:11:53 51°13.598 2°56.095 -999 4.782232 33.345967 -1.388018
2006-01-23 07:11:58 51°13.598 2°56.096 -999 4.782128 33.345736 -1.388018
2006-01-23 07:12:03 51°13.598 2°56.096 -999 4.782128 33.345736 -1.388018
2006-01-23 07:12:08 51°13.598 2°56.096 -999 4.782128 33.346317 -1.388018
2006-01-23 07:12:13 51°13.598 2°56.096 -999 4.782024 33.345505 -1.388018
2006-01-23 07:12:17 51°13.598 2°56.095 -999 4.782024 33.345505 -1.388018
2006-01-23 07:12:25 51°13.598 2°56.095 -999 4.782024 33.346086 -1.388018
2006-01-23 07:12:31 51°13.598 2°56.095 -999 4.78192 33.345275 -1.388018
2006-01-23 07:12:35 51°13.598 2°56.095 -999 4.78192 33.345275 -1.388018
2006-01-23 07:12:41 51°13.598 2°56.095 -999 4.78192 33.345855 -1.388018
2006-01-23 07:12:45 51°13.598 2°56.095 -999 4.78192 33.345855 -1.388018
2006-01-23 07:12:51 51°13.598 2°56.095 -999 4.78192 33.345855 -1.388018
2006-01-23 07:12:55 51°13.599 2°56.095 -999 4.78192 33.345855 -1.388018
2006-01-23 07:13:00 51°13.599 2°56.095 -999 4.781817 33.345624 -1.388018
2006-01-23 07:13:05 51°13.599 2°56.095 -999 4.781817 33.345624 -1.388018
2006-01-23 07:13:10 51°13.599 2°56.095 -999 4.781713 33.345393 -1.388018
2006-01-23 07:13:15 51°13.599 2°56.095 -999 4.781713 33.345393 -1.388018
2006-01-23 07:13:20 51°13.599 2°56.095 -999 4.781713 33.345393 -1.388018
2006-01-23 07:13:25 51°13.599 2°56.095 -999 4.781713 33.345393 -1.388018
2006-01-23 07:13:30 51°13.599 2°56.094 -999 4.781609 33.344582 -1.388018
2006-01-23 07:13:35 51°13.599 2°56.094 -999 4.781609 33.345162 -1.388018
2006-01-23 07:13:40 51°13.599 2°56.095 -999 4.781609 33.345162 -1.388018
2006-01-23 07:13:45 51°13.599 2°56.095 -999 4.781505 33.344931 -1.388018
2006-01-23 07:13:50 51°13.599 2°56.095 -999 4.781505 33.344931 -1.388018
2006-01-23 07:13:55 51°13.599 2°56.095 -999 4.781505 33.344931 -1.388018
2006-01-23 07:14:00 51°13.599 2°56.094 -999 4.781505 33.344931 -1.388018
2006-01-23 07:14:05 51°13.599 2°56.094 -999 4.781401 33.3447 -1.388018
2006-01-23 07:14:10 51°13.599 2°56.094 -999 4.781401 33.345281 -1.388018
2006-01-23 07:14:13 51°13.599 2°56.094 -999 4.781401 33.345281 -1.388018
2006-01-23 07:14:17 51°13.599 2°56.094 -999 4.781401 33.345281 -1.388018
2006-01-23 07:14:22 51°13.599 2°56.094 -999 4.781401 33.345281 -1.388018
2006-01-23 07:14:27 51°13.599 2°56.094 -999 4.781297 33.344469 -1.388018
2006-01-23 07:14:32 51°13.599 2°56.094 -999 4.781297 33.34505 -1.388018
2006-01-23 07:14:36 51°13.599 2°56.094 -999 4.781297 33.34505 -1.388018
2006-01-23 07:14:41 51°13.599 2°56.094 -999 4.781194 33.344819 -1.388018
2006-01-23 07:14:47 51°13.599 2°56.094 -999 4.781194 33.344819 -1.388018
2006-01-23 07:14:52 51°13.599 2°56.095 -999 4.781194 33.344819 -1.388018
2006-01-23 07:14:57 51°13.599 2°56.095 -999 4.78109 33.344007 -1.388018
2006-01-23 07:15:01 51°13.599 2°56.095 -999 4.78109 33.344588 -1.388018
2006-01-23 07:15:07 51°13.599 2°56.095 -999 4.78109 33.344588 -1.388018
2006-01-23 07:15:12 51°13.599 2°56.095 -999 4.78109 33.345169 -1.388018
2006-01-23 07:15:16 51°13.599 2°56.095 -999 4.78109 33.345169 -1.388018
2006-01-23 07:15:22 51°13.599 2°56.095 -999 4.780986 33.344357 -1.388018
2006-01-23 07:15:26 51°13.599 2°56.095 -999 4.780986 33.344357 -1.388018
2006-01-23 07:15:32 51°13.599 2°56.095 -999 4.780986 33.344938 -1.388018
2006-01-23 07:15:37 51°13.599 2°56.095 -999 4.780986 33.345519 -1.388018
2006-01-23 07:15:41 51°13.599 2°56.095 -999 4.780882 33.344707 -1.388018
2006-01-23 07:15:47 51°13.599 2°56.094 -999 4.780882 33.344707 -1.388018
2006-01-23 07:15:52 51°13.599 2°56.094 -999 4.780882 33.344707 -1.388018
2006-01-23 07:15:57 51°13.599 2°56.094 -999 4.780882 33.345288 -1.388018
2006-01-23 07:16:01 51°13.599 2°56.094 -999 4.780778 33.344476 -1.388018
2006-01-23 07:16:07 51°13.599 2°56.095 -999 4.780778 33.345057 -1.388018
2006-01-23 07:16:11 51°13.599 2°56.095 -999 4.780778 33.345057 -1.388018
2006-01-23 07:16:17 51°13.599 2°56.095 -999 4.780675 33.344245 -1.388018
2006-01-23 07:16:22 51°13.599 2°56.095 -999 4.780675 33.344826 -1.388018
2006-01-23 07:16:27 51°13.599 2°56.095 -999 4.780675 33.344826 -1.388018
2006-01-23 07:16:31 51°13.599 2°56.095 -999 4.780675 33.344826 -1.388018
2006-01-23 07:16:36 51°13.599 2°56.095 -999 4.780571 33.344595 -1.388018
2006-01-23 07:16:41 51°13.599 2°56.095 -999 4.780571 33.344595 -1.388018
2006-01-23 07:16:47 51°13.599 2°56.095 -999 4.780571 33.344595 -1.388018
2006-01-23 07:16:52 51°13.599 2°56.095 -999 4.780571 33.345176 -1.388018
2006-01-23 07:16:56 51°13.599 2°56.095 -999 4.780467 33.344364 -1.388018
2006-01-23 07:17:02 51°13.599 2°56.094 -999 4.780467 33.344945 -1.388018
2006-01-23 07:17:07 51°13.599 2°56.094 -999 4.780467 33.344945 -1.388018
2006-01-23 07:17:12 51°13.599 2°56.094 -999 4.780363 33.344714 -1.388018
2006-01-23 07:17:16 51°13.599 2°56.094 -999 4.780363 33.344714 -1.388018
2006-01-23 07:17:21 51°13.599 2°56.094 -999 4.780363 33.344714 -1.388018
2006-01-23 07:17:27 51°13.598 2°56.095 -999 4.780363 33.344714 -1.388018
2006-01-23 07:17:32 51°13.598 2°56.095 -999 4.780363 33.345295 -1.388018
2006-01-23 07:17:36 51°13.598 2°56.095 -999 4.780259 33.345064 -1.388018
2006-01-23 07:17:41 51°13.598 2°56.095 -999 4.780259 33.345064 -1.388018
2006-01-23 07:17:47 51°13.598 2°56.095 -999 4.780259 33.345645 -1.388018
2006-01-23 07:17:52 51°13.598 2°56.095 -999 4.780155 33.344833 -1.388018
2006-01-23 07:17:56 51°13.598 2°56.095 -999 4.780155 33.344833 -1.388018
2006-01-23 07:18:02 51°13.598 2°56.095 -999 4.780052 33.344602 -1.388018
2006-01-23 07:18:07 51°13.598 2°56.095 -999 4.780052 33.345183 -1.388018
2006-01-23 07:18:12 51°13.598 2°56.095 -999 4.780052 33.345183 -1.388018
2006-01-23 07:18:17 51°13.598 2°56.095 -999 4.780052 33.345183 -1.388018
2006-01-23 07:18:21 51°13.598 2°56.095 -999 4.779948 33.344952 -1.388018
2006-01-23 07:18:25 51°13.598 2°56.095 -999 4.779948 33.345533 -1.388018
2006-01-23 07:18:31 51°13.598 2°56.095 -999 4.779844 33.344721 -1.388018
2006-01-23 07:18:36 51°13.598 2°56.095 -999 4.779844 33.345302 -1.388018
2006-01-23 07:18:40 51°13.598 2°56.095 -999 4.779844 33.345883 -1.388018
2006-01-23 07:18:45 51°13.598 2°56.095 -999 4.779844 33.345883 -1.388018
2006-01-23 07:18:52 51°13.599 2°56.095 -999 4.77974 33.345071 -1.388018
2006-01-23 07:18:57 51°13.599 2°56.095 -999 4.77974 33.345652 -1.388018
2006-01-23 07:19:02 51°13.599 2°56.095 -999 4.779636 33.34484 -1.388018
2006-01-23 07:19:07 51°13.6 2°56.095 -999 4.779636 33.345421 -1.388018
2006-01-23 07:19:12 51°13.6 2°56.094 -999 4.779636 33.346002 -1.388018
2006-01-23 07:19:17 51°13.599 2°56.095 -999 4.779636 33.346002 -1.388018
2006-01-23 07:19:21 51°13.599 2°56.095 -999 4.779533 33.345771 -1.388018
2006-01-23 07:19:27 51°13.599 2°56.095 -999 4.779429 33.344959 -1.388018
2006-01-23 07:19:32 51°13.599 2°56.095 -999 4.779429 33.34554 -1.388018
2006-01-23 07:19:37 51°13.599 2°56.095 -999 4.779429 33.346121 -1.388018
2006-01-23 07:19:41 51°13.599 2°56.095 -999 4.779429 33.346121 -1.388018
2006-01-23 07:19:47 51°13.599 2°56.095 -999 4.779325 33.345309 -1.388018
2006-01-23 07:19:52 51°13.599 2°56.095 -999 4.779325 33.34589 -1.388018
2006-01-23 07:19:56 51°13.599 2°56.095 -999 4.779221 33.345659 -1.388018
2006-01-23 07:20:02 51°13.599 2°56.095 -999 4.779221 33.345659 -1.388018
2006-01-23 07:20:06 51°13.599 2°56.095 -999 4.779117 33.345428 -1.388018
2006-01-23 07:20:11 51°13.599 2°56.095 -999 4.779117 33.346009 -1.388018
2006-01-23 07:20:17 51°13.599 2°56.095 -999 4.779117 33.346009 -1.388018
2006-01-23 07:20:22 51°13.599 2°56.095 -999 4.779013 33.345197 -1.388018
2006-01-23 07:20:27 51°13.599 2°56.095 -999 4.779013 33.345778 -1.388018
2006-01-23 07:20:32 51°13.599 2°56.095 -999 4.77891 33.345547 -1.388018
2006-01-23 07:20:37 51°13.599 2°56.095 -999 4.77891 33.346129 -1.388018
2006-01-23 07:20:41 51°13.599 2°56.095 -999 4.778806 33.345317 -1.388018
2006-01-23 07:20:45 51°13.599 2°56.095 -999 4.778806 33.345317 -1.388018
2006-01-23 07:20:52 51°13.599 2°56.094 -999 4.778806 33.345898 -1.388018
2006-01-23 07:20:56 51°13.599 2°56.094 -999 4.778702 33.345667 -1.388018
2006-01-23 07:21:02 51°13.599 2°56.094 -999 4.778702 33.346248 -1.388018
2006-01-23 07:21:07 51°13.598 2°56.094 -999 4.778598 33.345436 -1.388018
2006-01-23 07:21:12 51°13.599 2°56.094 -999 4.778598 33.345436 -1.388018
2006-01-23 07:21:17 51°13.599 2°56.094 -999 4.778598 33.346017 -1.388018
2006-01-23 07:21:22 51°13.599 2°56.094 -999 4.778494 33.345786 -1.388018
2006-01-23 07:21:27 51°13.599 2°56.094 -999 4.778494 33.345786 -1.388018
2006-01-23 07:21:32 51°13.599 2°56.094 -999 4.77839 33.345555 -1.388018
2006-01-23 07:21:37 51°13.599 2°56.094 -999 4.77839 33.346136 -1.388018
2006-01-23 07:21:42 51°13.599 2°56.094 -999 4.778287 33.345905 -1.388018
2006-01-23 07:21:47 51°13.599 2°56.094 -999 4.778287 33.345905 -1.388018
2006-01-23 07:21:52 51°13.599 2°56.094 -999 4.778287 33.346487 -1.388018
2006-01-23 07:21:56 51°13.599 2°56.094 -999 4.778183 33.345674 -1.388018
2006-01-23 07:22:01 51°13.599 2°56.094 -999 4.778183 33.346256 -1.388018
2006-01-23 07:22:06 51°13.599 2°56.093 -999 4.778079 33.346025 -1.388018
2006-01-23 07:22:12 51°13.599 2°56.093 -999 4.778079 33.346606 -1.388018
2006-01-23 07:22:16 51°13.599 2°56.093 -999 4.778079 33.346606 -1.388018
2006-01-23 07:22:22 51°13.599 2°56.093 -999 4.777975 33.345794 -1.388018
2006-01-23 07:22:27 51°13.6 2°56.093 -999 4.777871 33.346144 -1.388018
2006-01-23 07:22:32 51°13.6 2°56.093 -999 4.777871 33.346144 -1.388018
2006-01-23 07:22:37 51°13.6 2°56.093 -999 4.777768 33.345332 -1.388018
2006-01-23 07:22:41 51°13.6 2°56.093 -999 4.777768 33.345332 -1.388018
2006-01-23 07:22:46 51°13.6 2°56.093 -999 4.777664 33.345682 -1.388018
2006-01-23 07:22:52 51°13.6 2°56.093 -999 4.777664 33.345682 -1.388018
2006-01-23 07:22:56 51°13.6 2°56.093 -999 4.77756 33.345451 -1.388018
2006-01-23 07:23:02 51°13.6 2°56.094 -999 4.777456 33.34522 -1.388018
2006-01-23 07:23:05 51°13.599 2°56.094 -999 4.777456 33.345802 -1.388018
2006-01-23 07:23:12 51°13.599 2°56.094 -999 4.777456 33.345802 -1.388018
2006-01-23 07:23:16 51°13.6 2°56.094 -999 4.777352 33.345571 -1.388018
2006-01-23 07:23:22 51°13.6 2°56.094 -999 4.777248 33.344759 -1.388018
2006-01-23 07:23:27 51°13.6 2°56.094 -999 4.777145 33.344528 -1.388018
2006-01-23 07:23:32 51°13.6 2°56.094 -999 4.777145 33.345109 -1.388018
2006-01-23 07:23:36 51°13.6 2°56.094 -999 4.777041 33.344878 -1.388018
2006-01-23 07:23:41 51°13.6 2°56.094 -999 4.777041 33.34546 -1.388018
2006-01-23 07:23:47 51°13.6 2°56.094 -999 4.777041 33.34546 -1.388018
2006-01-23 07:23:52 51°13.6 2°56.094 -999 4.776937 33.345229 -1.388018
2006-01-23 07:23:57 51°13.6 2°56.094 -999 4.776937 33.345229 -1.388018
2006-01-23 07:24:01 51°13.6 2°56.094 -999 4.776833 33.345579 -1.388018
2006-01-23 07:24:07 51°13.6 2°56.094 -999 4.776729 33.344767 -1.388018
2006-01-23 07:24:12 51°13.6 2°56.094 -999 4.776729 33.345348 -1.388018
2006-01-23 07:24:16 51°13.6 2°56.094 -999 4.776729 33.345348 -1.388018
2006-01-23 07:24:21 51°13.6 2°56.094 -999 4.776626 33.345117 -1.388018
2006-01-23 07:24:27 51°13.6 2°56.094 -999 4.776626 33.345117 -1.388018
2006-01-23 07:24:32 51°13.6 2°56.094 -999 4.776522 33.344886 -1.388018
2006-01-23 07:24:37 51°13.6 2°56.094 -999 4.776522 33.345468 -1.388018
2006-01-23 07:24:41 51°13.6 2°56.094 -999 4.776522 33.345468 -1.388018
2006-01-23 07:24:45 51°13.601 2°56.094 -999 4.776418 33.345237 -1.388018
2006-01-23 07:24:52 51°13.601 2°56.094 -999 4.776314 33.345006 -1.388018
2006-01-23 07:24:57 51°13.601 2°56.094 -999 4.776314 33.345006 -1.388018
2006-01-23 07:25:02 51°13.601 2°56.094 -999 4.77621 33.345356 -1.388018
2006-01-23 07:25:07 51°13.601 2°56.094 -999 4.77621 33.345356 -1.388018
2006-01-23 07:25:11 51°13.601 2°56.094 -999 4.77621 33.345356 -1.388018
2006-01-23 07:25:17 51°13.601 2°56.094 -999 4.77621 33.345938 -1.388018
2006-01-23 07:25:22 51°13.601 2°56.094 -999 4.776106 33.345707 -1.388018
2006-01-23 07:25:27 51°13.601 2°56.094 -999 4.776003 33.345476 -1.388018
2006-01-23 07:25:31 51°13.601 2°56.094 -999 4.775899 33.344664 -1.388018
2006-01-23 07:25:37 51°13.601 2°56.094 -999 4.775899 33.345827 -1.388018
2006-01-23 07:25:42 51°13.6 2°56.095 -999 4.775795 33.345014 -1.388018
2006-01-23 07:25:47 51°13.6 2°56.095 -999 4.775795 33.345014 -1.388018
2006-01-23 07:25:52 51°13.6 2°56.095 -999 4.775795 33.345596 -1.388018
2006-01-23 07:25:57 51°13.6 2°56.095 -999 4.775691 33.345365 -1.388018
2006-01-23 07:26:01 51°13.6 2°56.095 -999 4.775587 33.344552 -1.388018
2006-01-23 07:26:07 51°13.6 2°56.095 -999 4.775587 33.345716 -1.388018
2006-01-23 07:26:12 51°13.6 2°56.095 -999 4.775483 33.344903 -1.388018
2006-01-23 07:26:17 51°13.6 2°56.095 -999 4.775483 33.344903 -1.388018
2006-01-23 07:26:21 51°13.6 2°56.095 -999 4.775484 33.346067 -1.388018
2006-01-23 07:26:27 51°13.6 2°56.095 -999 4.77538 33.345254 -1.388018
2006-01-23 07:26:32 51°13.6 2°56.095 -999 4.775276 33.345023 -1.388018
2006-01-23 07:26:36 51°13.6 2°56.095 -999 4.775276 33.345605 -1.388018
2006-01-23 07:26:42 51°13.6 2°56.095 -999 4.775276 33.345605 -1.388018
2006-01-23 07:26:46 51°13.6 2°56.095 -999 4.775172 33.345374 -1.388018
2006-01-23 07:26:52 51°13.6 2°56.095 -999 4.775068 33.345143 -1.388018
2006-01-23 07:26:57 51°13.6 2°56.095 -999 4.775068 33.345725 -1.388018
2006-01-23 07:27:01 51°13.6 2°56.095 -999 4.774964 33.344912 -1.388018
2006-01-23 07:27:05 51°13.6 2°56.095 -999 4.774964 33.345494 -1.388018
2006-01-23 07:27:12 51°13.6 2°56.095 -999 4.774861 33.345263 -1.388018
2006-01-23 07:27:17 51°13.6 2°56.095 -999 4.774861 33.345263 -1.388018
2006-01-23 07:27:21 51°13.6 2°56.095 -999 4.774757 33.345032 -1.388018
2006-01-23 07:27:27 51°13.6 2°56.095 -999 4.774757 33.345614 -1.388018
2006-01-23 07:27:32 51°13.6 2°56.095 -999 4.774653 33.345383 -1.388018
2006-01-23 07:27:37 51°13.6 2°56.095 -999 4.774653 33.345383 -1.388018
2006-01-23 07:27:42 51°13.6 2°56.095 -999 4.774549 33.345152 -1.388018
2006-01-23 07:27:47 51°13.6 2°56.094 -999 4.774549 33.345152 -1.388018
2006-01-23 07:27:52 51°13.6 2°56.094 -999 4.774445 33.344921 -1.388018
2006-01-23 07:27:57 51°13.6 2°56.094 -999 4.774445 33.345503 -1.388018
2006-01-23 07:28:02 51°13.6 2°56.095 -999 4.774341 33.345272 -1.388018
2006-01-23 07:28:07 51°13.6 2°56.094 -999 4.774238 33.345041 -1.388018
2006-01-23 07:28:12 51°13.6 2°56.095 -999 4.774238 33.345041 -1.388018
2006-01-23 07:28:17 51°13.6 2°56.095 -999 4.774238 33.345623 -1.388018
2006-01-23 07:28:21 51°13.6 2°56.095 -999 4.774134 33.34481 -1.388018
2006-01-23 07:28:27 51°13.6 2°56.095 -999 4.77403 33.344579 -1.388018
2006-01-23 07:28:32 51°13.6 2°56.095 -999 4.77403 33.345161 -1.388018
2006-01-23 07:28:37 51°13.6 2°56.095 -999 4.773926 33.34493 -1.388018
2006-01-23 07:28:41 51°13.6 2°56.095 -999 4.773926 33.34493 -1.388018
2006-01-23 07:28:47 51°13.6 2°56.095 -999 4.773822 33.344699 -1.388018
2006-01-23 07:28:52 51°13.6 2°56.095 -999 4.773719 33.344468 -1.388018
2006-01-23 07:28:57 51°13.6 2°56.095 -999 4.773719 33.34505 -1.388018
2006-01-23 07:29:01 51°13.599 2°56.095 -999 4.773615 33.344237 -1.388018
2006-01-23 07:29:07 51°13.599 2°56.096 -999 4.773615 33.344819 -1.388018
2006-01-23 07:29:12 51°13.599 2°56.096 -999 4.773511 33.344588 -1.388018
2006-01-23 07:29:17 51°13.599 2°56.096 -999 4.773511 33.344588 -1.388018
2006-01-23 07:29:21 51°13.599 2°56.096 -999 4.773407 33.344357 -1.388018
2006-01-23 07:29:25 51°13.599 2°56.096 -999 4.773407 33.344939 -1.388018
2006-01-23 07:29:32 51°13.599 2°56.095 -999 4.773303 33.344708 -1.388018
2006-01-23 07:29:37 51°13.599 2°56.096 -999 4.773199 33.344477 -1.421728
2006-01-23 07:29:42 51°13.599 2°56.096 -999 4.773199 33.345059 -1.388018
2006-01-23 07:29:46 51°13.599 2°56.096 -999 4.773199 33.345059 -1.388018
2006-01-23 07:29:52 51°13.599 2°56.095 -999 4.773096 33.344828 -1.388018
2006-01-23 07:29:57 51°13.599 2°56.095 -999 4.772992 33.344015 -1.388018
2006-01-23 07:30:02 51°13.599 2°56.095 -999 4.772992 33.345179 -1.388018
2006-01-23 07:30:07 51°13.599 2°56.095 -999 4.772888 33.344366 -1.388018
2006-01-23 07:30:12 51°13.599 2°56.095 -999 4.772888 33.344366 -1.388018
2006-01-23 07:30:16 51°13.599 2°56.095 -999 4.772784 33.344135 -1.388018
2006-01-23 07:30:22 51°13.599 2°56.095 -999 4.77268 33.343904 -1.388018
2006-01-23 07:30:27 51°13.599 2°56.095 -999 4.77268 33.344487 -1.388018
2006-01-23 07:30:32 51°13.599 2°56.095 -999 4.772577 33.344256 -1.388018
2006-01-23 07:30:37 51°13.599 2°56.095 -999 4.772473 33.344025 -1.388018
2006-01-23 07:30:41 51°13.599 2°56.095 -999 4.772473 33.344025 -1.388018
2006-01-23 07:30:47 51°13.599 2°56.095 -999 4.772473 33.344607 -1.388018
2006-01-23 07:30:52 51°13.599 2°56.095 -999 4.772369 33.344376 -1.388018
2006-01-23 07:30:57 51°13.599 2°56.095 -999 4.772265 33.344145 -1.388018
2006-01-23 07:31:02 51°13.599 2°56.095 -999 4.772161 33.343332 -1.388018
2006-01-23 07:31:07 51°13.599 2°56.095 -999 4.772161 33.343914 -1.388018
2006-01-23 07:31:12 51°13.599 2°56.095 -999 4.772057 33.343683 -1.388018
2006-01-23 07:31:16 51°13.599 2°56.095 -999 4.772057 33.343683 -1.388018
2006-01-23 07:31:21 51°13.599 2°56.095 -999 4.771954 33.343452 -1.388018
2006-01-23 07:31:27 51°13.599 2°56.095 -999 4.771954 33.344034 -1.388018
2006-01-23 07:31:32 51°13.599 2°56.095 -999 4.77185 33.343803 -1.388018
2006-01-23 07:31:37 51°13.599 2°56.095 -999 4.771746 33.343572 -1.388018
2006-01-23 07:31:41 51°13.599 2°56.095 -999 4.771746 33.344155 -1.388018
2006-01-23 07:31:47 51°13.599 2°56.095 -999 4.771746 33.344155 -1.388018
2006-01-23 07:31:52 51°13.599 2°56.095 -999 4.771642 33.343924 -1.388018
2006-01-23 07:31:57 51°13.599 2°56.095 -999 4.771538 33.343693 -1.388018
2006-01-23 07:32:02 51°13.599 2°56.095 -999 4.771538 33.344275 -1.388018
2006-01-23 07:32:07 51°13.599 2°56.095 -999 4.771434 33.344044 -1.388018
2006-01-23 07:32:12 51°13.599 2°56.095 -999 4.771434 33.344044 -1.388018
2006-01-23 07:32:17 51°13.599 2°56.095 -999 4.771331 33.343813 -1.388018
2006-01-23 07:32:20 51°13.599 2°56.095 -999 4.771331 33.344395 -1.388018
2006-01-23 07:32:27 51°13.599 2°56.095 -999 4.771227 33.344164 -1.388018
2006-01-23 07:32:32 51°13.599 2°56.095 -999 4.771123 33.343351 -1.388018
2006-01-23 07:32:36 51°13.599 2°56.095 -999 4.771123 33.343934 -1.388018
2006-01-23 07:32:42 51°13.599 2°56.095 -999 4.771019 33.343703 -1.388018
2006-01-23 07:32:47 51°13.599 2°56.095 -999 4.771019 33.343703 -1.388018
2006-01-23 07:32:52 51°13.599 2°56.095 -999 4.770915 33.343472 -1.388018
2006-01-23 07:32:57 51°13.599 2°56.095 -999 4.770812 33.343241 -1.388018
2006-01-23 07:33:01 51°13.599 2°56.095 -999 4.770708 33.34301 -1.388018
2006-01-23 07:33:07 51°13.599 2°56.096 -999 4.770708 33.34301 -1.388018
2006-01-23 07:33:12 51°13.599 2°56.096 -999 4.770604 33.343361 -1.388018
2006-01-23 07:33:17 51°13.599 2°56.096 -999 4.770604 33.343361 -1.388018
2006-01-23 07:33:21 51°13.599 2°56.096 -999 4.770604 33.343944 -1.388018
2006-01-23 07:33:27 51°13.599 2°56.096 -999 4.7705 33.343713 -1.388018
2006-01-23 07:33:32 51°13.599 2°56.096 -999 4.770396 33.343482 -1.388018
2006-01-23 07:33:37 51°13.599 2°56.096 -999 4.770292 33.342668 -1.388018
2006-01-23 07:33:41 51°13.599 2°56.096 -999 4.770292 33.342668 -1.388018
2006-01-23 07:33:46 51°13.599 2°56.096 -999 4.770292 33.343833 -1.388018
2006-01-23 07:33:52 51°13.599 2°56.096 -999 4.770189 33.343602 -1.388018
2006-01-23 07:33:57 51°13.599 2°56.096 -999 4.770085 33.342789 -1.388018
2006-01-23 07:34:01 51°13.599 2°56.096 -999 4.770085 33.343371 -1.421728
2006-01-23 07:34:06 51°13.599 2°56.096 -999 4.769981 33.34314 -1.388018
2006-01-23 07:34:12 51°13.599 2°56.095 -999 4.769877 33.342909 -1.388018
2006-01-23 07:34:17 51°13.599 2°56.095 -999 4.769877 33.342909 -1.388018
2006-01-23 07:34:21 51°13.599 2°56.095 -999 4.769773 33.342678 -1.388018
2006-01-23 07:34:27 51°13.599 2°56.095 -999 4.769773 33.343261 -1.388018
2006-01-23 07:34:32 51°13.599 2°56.095 -999 4.76967 33.34303 -1.388018
2006-01-23 07:34:37 51°13.599 2°56.095 -999 4.769566 33.342799 -1.388018
2006-01-23 07:34:42 51°13.599 2°56.095 -999 4.769462 33.342568 -1.388018
2006-01-23 07:34:47 51°13.599 2°56.095 -999 4.769462 33.342568 -1.388018
2006-01-23 07:34:52 51°13.599 2°56.095 -999 4.769462 33.343151 -1.388018
2006-01-23 07:34:56 51°13.599 2°56.095 -999 4.769358 33.34292 -1.388018
2006-01-23 07:35:02 51°13.599 2°56.095 -999 4.769254 33.342689 -1.388018
2006-01-23 07:35:07 51°13.599 2°56.096 -999 4.769254 33.343271 -1.388018
2006-01-23 07:35:12 51°13.599 2°56.095 -999 4.76915 33.34304 -1.388018
2006-01-23 07:35:16 51°13.599 2°56.095 -999 4.76915 33.34304 -1.388018
2006-01-23 07:35:21 51°13.599 2°56.095 -999 4.769047 33.342809 -1.388018
2006-01-23 07:35:25 51°13.599 2°56.095 -999 4.768943 33.342578 -1.388018
2006-01-23 07:35:32 51°13.599 2°56.095 -999 4.768839 33.342347 -1.388018
2006-01-23 07:35:36 51°13.599 2°56.095 -999 4.768839 33.34293 -1.388018
2006-01-23 07:35:41 51°13.599 2°56.095 -999 4.768839 33.34293 -1.388018
2006-01-23 07:35:45 51°13.599 2°56.095 -999 4.768735 33.342699 -1.388018
2006-01-23 07:35:52 51°13.599 2°56.095 -999 4.768631 33.342468 -1.388018
2006-01-23 07:35:56 51°13.599 2°56.095 -999 4.768528 33.342237 -1.388018
2006-01-23 07:36:01 51°13.599 2°56.095 -999 4.768528 33.34282 -1.388018
2006-01-23 07:36:05 51°13.6 2°56.095 -999 4.768424 33.342589 -1.388018
2006-01-23 07:36:12 51°13.6 2°56.095 -999 4.76832 33.342358 -1.388018
2006-01-23 07:36:17 51°13.6 2°56.095 -999 4.76832 33.342358 -1.388018
2006-01-23 07:36:21 51°13.6 2°56.095 -999 4.768216 33.341544 -1.388018
2006-01-23 07:36:25 51°13.6 2°56.095 -999 4.768216 33.34271 -1.388018
2006-01-23 07:36:32 51°13.6 2°56.095 -999 4.768112 33.341896 -1.388018
2006-01-23 07:36:36 51°13.6 2°56.095 -999 4.768008 33.342248 -1.388018
2006-01-23 07:36:41 51°13.6 2°56.095 -999 4.768008 33.342831 -1.388018
2006-01-23 07:36:45 51°13.601 2°56.095 -999 4.768008 33.342831 -1.388018
2006-01-23 07:36:51 51°13.6 2°56.095 -999 4.767905 33.342017 -1.388018
2006-01-23 07:36:57 51°13.6 2°56.095 -999 4.767801 33.341786 -1.388018
2006-01-23 07:37:01 51°13.6 2°56.095 -999 4.767697 33.342138 -1.388018
2006-01-23 07:37:06 51°13.6 2°56.095 -999 4.767593 33.341907 -1.388018
2006-01-23 07:37:12 51°13.6 2°56.095 -999 4.767593 33.341907 -1.388018
2006-01-23 07:37:16 51°13.6 2°56.094 -999 4.767593 33.34249 -1.388018
2006-01-23 07:37:22 51°13.6 2°56.095 -999 4.767489 33.342259 -1.388018
2006-01-23 07:37:27 51°13.6 2°56.095 -999 4.767489 33.342842 -1.388018
2006-01-23 07:37:31 51°13.6 2°56.095 -999 4.767386 33.342611 -1.388018
2006-01-23 07:37:37 51°13.6 2°56.095 -999 4.767282 33.34238 -1.388018
2006-01-23 07:37:41 51°13.6 2°56.095 -999 4.767282 33.34238 -1.388018
2006-01-23 07:37:45 51°13.6 2°56.095 -999 4.767178 33.342149 -1.388018
2006-01-23 07:37:52 51°13.6 2°56.095 -999 4.767074 33.341918 -1.388018
2006-01-23 07:37:56 51°13.6 2°56.095 -999 4.767074 33.342501 -1.388018
2006-01-23 07:38:01 51°13.6 2°56.095 -999 4.76697 33.34227 -1.388018
2006-01-23 07:38:06 51°13.6 2°56.095 -999 4.766866 33.341456 -1.388018
2006-01-23 07:38:11 51°13.6 2°56.095 -999 4.766763 33.341808 -1.388018
2006-01-23 07:38:16 51°13.599 2°56.096 -999 4.766763 33.341808 -1.388018
2006-01-23 07:38:21 51°13.599 2°56.096 -999 4.766763 33.341808 -1.388018
2006-01-23 07:38:26 51°13.599 2°56.096 -999 4.766659 33.34216 -1.388018
2006-01-23 07:38:32 51°13.599 2°56.096 -999 4.766555 33.341929 -1.388018
2006-01-23 07:38:37 51°13.599 2°56.096 -999 4.766451 33.341698 -1.388018
2006-01-23 07:38:42 51°13.599 2°56.096 -999 4.766451 33.342281 -1.388018
2006-01-23 07:38:47 51°13.599 2°56.096 -999 4.766451 33.342281 -1.388018
2006-01-23 07:38:52 51°13.599 2°56.096 -999 4.766244 33.341236 -1.388018
2006-01-23 07:38:57 51°13.599 2°56.096 -999 4.766244 33.341819 -1.388018
2006-01-23 07:39:01 51°13.599 2°56.096 -999 4.76614 33.341588 -1.388018
2006-01-23 07:39:05 51°13.599 2°56.096 -999 4.76614 33.342171 -1.421728
2006-01-23 07:39:12 51°13.599 2°56.096 -999 4.76614 33.342171 -1.421728
2006-01-23 07:39:16 51°13.598 2°56.097 -999 4.766036 33.34194 -1.421728
2006-01-23 07:39:21 51°13.598 2°56.097 -999 4.765932 33.341709 -1.388018
2006-01-23 07:39:25 51°13.598 2°56.097 -999 4.765828 33.341478 -1.388018
2006-01-23 07:39:31 51°13.598 2°56.097 -999 4.765724 33.341247 -1.388018
2006-01-23 07:39:36 51°13.598 2°56.097 -999 4.765621 33.341016 -1.388018
2006-01-23 07:39:41 51°13.598 2°56.097 -999 4.765621 33.3416 -1.388018
2006-01-23 07:39:45 51°13.598 2°56.097 -999 4.765621 33.3416 -1.388018
2006-01-23 07:39:52 51°13.598 2°56.097 -999 4.765517 33.341369 -1.388018
2006-01-23 07:39:56 51°13.598 2°56.097 -999 4.765413 33.341138 -1.388018
2006-01-23 07:40:01 51°13.598 2°56.097 -999 4.765413 33.341721 -1.388018
2006-01-23 07:40:06 51°13.598 2°56.097 -999 4.765309 33.34149 -1.388018
2006-01-23 07:40:11 51°13.598 2°56.097 -999 4.765205 33.341259 -1.388018
2006-01-23 07:40:16 51°13.598 2°56.097 -999 4.765205 33.341259 -1.388018
2006-01-23 07:40:21 51°13.598 2°56.097 -999 4.765102 33.341028 -1.388018
2006-01-23 07:40:27 51°13.598 2°56.097 -999 4.764998 33.340797 -1.388018
2006-01-23 07:40:32 51°13.598 2°56.097 -999 4.764998 33.34138 -1.388018
2006-01-23 07:40:36 51°13.598 2°56.097 -999 4.764894 33.341149 -1.388018
2006-01-23 07:40:41 51°13.598 2°56.098 -999 4.764894 33.341733 -1.388018
2006-01-23 07:40:47 51°13.597 2°56.097 -999 4.764894 33.341733 -1.388018
2006-01-23 07:40:51 51°13.597 2°56.097 -999 4.764686 33.340687 -1.388018
2006-01-23 07:40:57 51°13.597 2°56.097 -999 4.764686 33.341271 -1.388018
2006-01-23 07:41:01 51°13.597 2°56.097 -999 4.764582 33.341623 -1.388018
2006-01-23 07:41:07 51°13.597 2°56.097 -999 4.764479 33.341392 -1.388018
2006-01-23 07:41:11 51°13.596 2°56.097 -999 4.764479 33.341392 -1.388018
2006-01-23 07:41:16 51°13.596 2°56.097 -999 4.764479 33.341392 -1.388018
2006-01-23 07:41:21 51°13.596 2°56.096 -999 4.764271 33.34093 -1.388018
2006-01-23 07:41:25 51°13.596 2°56.095 -999 4.764271 33.341514 -1.388018
2006-01-23 07:41:31 51°13.597 2°56.092 -999 4.764167 33.341283 -1.388018
2006-01-23 07:41:36 51°13.598 2°56.09 -999 4.764063 33.340468 -1.388018
2006-01-23 07:41:42 51°13.598 2°56.086 -999 4.763959 33.340237 -1.388018
2006-01-23 07:41:47 51°13.599 2°56.082 -999 4.763959 33.340237 -1.388018
2006-01-23 07:41:52 51°13.6 2°56.078 -999 4.763856 33.340006 -1.388018
2006-01-23 07:41:57 51°13.602 2°56.074 -999 4.763856 33.340006 -1.388018
2006-01-23 07:42:02 51°13.603 2°56.069 -999 4.751086 33.326189 -1.3206
2006-01-23 07:42:07 51°13.604 2°56.064 -999 4.723262 33.21195 -1.3206
2006-01-23 07:42:12 51°13.606 2°56.058 -999 4.165772 28.914397 -1.219471
2006-01-23 07:42:17 51°13.607 2°56.053 -999 4.165772 28.914397 -1.219471
2006-01-23 07:42:21 51°13.608 2°56.048 -999 4.290363 31.935717 -1.185762
2006-01-23 07:42:27 51°13.611 2°56.041 -999 4.389892 35.661014 -1.253181
2006-01-23 07:42:32 51°13.612 2°56.034 -999 3.681174 31.428766 -1.3206
2006-01-23 07:42:37 51°13.614 2°56.028 -999 3.353679 29.543913 -1.185762
2006-01-23 07:42:41 51°13.615 2°56.022 -999 3.353679 29.543913 -1.185762
2006-01-23 07:42:47 51°13.618 2°56.014 -999 3.129548 28.371225 -1.084634
2006-01-23 07:42:52 51°13.619 2°56.007 -999 3.05249 28.456727 -1.118343
2006-01-23 07:42:57 51°13.621 2°56 -999 3.021981 28.599496 -1.118343
2006-01-23 07:43:01 51°13.623 2°55.994 -999 3.003781 28.779523 -1.152053
2006-01-23 07:43:07 51°13.625 2°55.985 -999 2.988684 28.878702 -1.152053
2006-01-23 07:43:12 51°13.628 2°55.977 -999 2.975344 28.935209 -1.152053
2006-01-23 07:43:17 51°13.63 2°55.969 -999 2.975344 28.935209 -1.152053
2006-01-23 07:43:21 51°13.632 2°55.962 -999 2.975657 29.125941 -1.185762
2006-01-23 07:43:27 51°13.635 2°55.952 -999 2.968211 29.166688 -1.185762
2006-01-23 07:43:32 51°13.638 2°55.943 -999 2.963766 29.224395 -1.185762
2006-01-23 07:43:37 51°13.641 2°55.934 -999 2.970282 29.388515 -1.219471
2006-01-23 07:43:41 51°13.643 2°55.926 -999 2.975351 29.519019 -1.219471
2006-01-23 07:43:47 51°13.647 2°55.914 -999 2.975351 29.519019 -1.219471
2006-01-23 07:43:52 51°13.65 2°55.905 -999 2.958183 29.393832 -1.219471
2006-01-23 07:43:57 51°13.654 2°55.894 -999 2.967595 29.549677 -1.219471
2006-01-23 07:44:01 51°13.657 2°55.886 -999 2.978869 29.733294 -1.219471
2006-01-23 07:44:07 51°13.661 2°55.874 -999 2.990454 29.922001 -1.219471
2006-01-23 07:44:12 51°13.665 2°55.864 -999 2.981766 29.865305 -1.219471
2006-01-23 07:44:17 51°13.668 2°55.853 -999 2.981766 29.865305 -1.219471
2006-01-23 07:44:21 51°13.671 2°55.845 -999 2.980939 29.884632 -1.219471
2006-01-23 07:44:27 51°13.676 2°55.832 -999 3.00959 30.251253 -1.219471
2006-01-23 07:44:32 51°13.68 2°55.821 -999 3.008038 30.270615 -1.219471
2006-01-23 07:44:37 51°13.683 2°55.81 -999 3.012693 30.355686 -1.219471
2006-01-23 07:44:41 51°13.686 2°55.802 -999 3.012693 30.355686 -1.219471
2006-01-23 07:44:47 51°13.689 2°55.791 -999 3.015383 30.41305 -1.219471
2006-01-23 07:44:52 51°13.692 2°55.781 -999 3.0189 30.479755 -1.219471
2006-01-23 07:44:57 51°13.694 2°55.772 -999 3.020452 30.519469 -1.185762
2006-01-23 07:45:01 51°13.696 2°55.765 -999 3.024589 30.578626 -1.185762
2006-01-23 07:45:05 51°13.698 2°55.758 -999 3.02128 30.571041 -1.219471
2006-01-23 07:45:12 51°13.7 2°55.746 -999 3.0249 30.628857 -1.219471
2006-01-23 07:45:17 51°13.702 2°55.738 -999 3.0249 30.628857 -1.219471
2006-01-23 07:45:21 51°13.703 2°55.733 -999 3.019315 30.580228 -1.219471
2006-01-23 07:45:27 51°13.704 2°55.725 -999 3.018384 30.584542 -1.219471
2006-01-23 07:45:32 51°13.704 2°55.72 -999 3.016833 30.588852 -1.219471
2006-01-23 07:45:37 51°13.705 2°55.716 -999 3.025315 30.707411 -1.219471
2006-01-23 07:45:41 51°13.705 2°55.714 -999 3.019729 30.663057 -1.219471
2006-01-23 07:45:47 51°13.706 2°55.712 -999 3.019729 30.663057 -1.219471
2006-01-23 07:45:51 51°13.706 2°55.711 -999 3.013316 30.60155 -1.219471
2006-01-23 07:45:57 51°13.707 2°55.71 -999 3.012696 30.609377 -1.219471
2006-01-23 07:46:01 51°13.707 2°55.71 -999 3.008145 30.570467 -1.219471
2006-01-23 07:46:05 51°13.708 2°55.71 -999 3.009076 30.58788 -1.219471
2006-01-23 07:46:12 51°13.71 2°55.711 -999 3.009076 30.58788 -1.219471
2006-01-23 07:46:17 51°13.711 2°55.711 -999 3.001629 30.520764 -1.219471
2006-01-23 07:46:21 51°13.713 2°55.712 -999 2.998837 30.504163 -1.219471
2006-01-23 07:46:27 51°13.715 2°55.712 -999 2.995527 30.479132 -1.219471
2006-01-23 07:46:32 51°13.716 2°55.713 -999 2.994493 30.472719 -1.219471
2006-01-23 07:46:36 51°13.718 2°55.713 -999 2.986632 30.393043 -1.219471
2006-01-23 07:46:41 51°13.721 2°55.713 -999 2.979599 30.319196 -1.219471
2006-01-23 07:46:47 51°13.724 2°55.713 -999 2.979599 30.319196 -1.219471
2006-01-23 07:46:52 51°13.727 2°55.713 -999 2.977634 30.307486 -1.219471
2006-01-23 07:46:57 51°13.73 2°55.712 -999 2.972256 30.25481 -1.219471
2006-01-23 07:47:01 51°13.733 2°55.711 -999 2.961294 30.14538 -1.219471
2006-01-23 07:47:07 51°13.737 2°55.71 -999 2.947022 29.996158 -1.219471
2006-01-23 07:47:12 51°13.742 2°55.707 -999 2.932854 29.843838 -1.219471
2006-01-23 07:47:17 51°13.746 2°55.704 -999 2.932854 29.843838 -1.219471
2006-01-23 07:47:21 51°13.749 2°55.702 -999 2.925615 29.773609 -1.219471
2006-01-23 07:47:27 51°13.755 2°55.697 -999 2.921375 29.734492 -1.219471
2006-01-23 07:47:32 51°13.76 2°55.693 -999 2.920548 29.728599 -1.219471
2006-01-23 07:47:37 51°13.766 2°55.689 -999 2.920238 29.730214 -1.219471
2006-01-23 07:47:41 51°13.77 2°55.685 -999 2.922099 29.756232 -1.219471
2006-01-23 07:47:45 51°13.775 2°55.681 -999 2.922099 29.756232 -1.219471
2006-01-23 07:47:51 51°13.783 2°55.675 -999 2.912482 29.654968 -1.219471
2006-01-23 07:47:57 51°13.791 2°55.668 -999 2.917549 29.719555 -1.219471
2006-01-23 07:48:01 51°13.796 2°55.664 -999 2.917859 29.727295 -1.219471
2006-01-23 07:48:05 51°13.802 2°55.659 -999 2.912068 29.667294 -1.185762
2006-01-23 07:48:11 51°13.811 2°55.652 -999 2.912068 29.667294 -1.185762
2006-01-23 07:48:17 51°13.82 2°55.645 -999 2.899556 29.529218 -1.185762
2006-01-23 07:48:21 51°13.826 2°55.64 -999 2.900383 29.541895 -1.185762
2006-01-23 07:48:27 51°13.836 2°55.632 -999 2.898315 29.524573 -1.185762
2006-01-23 07:48:32 51°13.844 2°55.626 -999 2.895523 29.497422 -1.152053
2006-01-23 07:48:36 51°13.85 2°55.62 -999 2.890353 29.443541 -1.152053
2006-01-23 07:48:41 51°13.858 2°55.613 -999 2.887561 29.418068 -1.118343
2006-01-23 07:48:47 51°13.868 2°55.605 -999 2.887561 29.418068 -1.118343
2006-01-23 07:48:52 51°13.877 2°55.598 -999 2.883425 29.375799 -1.118343
2006-01-23 07:48:56 51°13.884 2°55.592 -999 2.883322 29.379689 -1.118343
2006-01-23 07:49:01 51°13.892 2°55.585 -999 2.885597 29.412001 -1.084634
2006-01-23 07:49:05 51°13.899 2°55.579 -999 2.881254 29.364862 -1.084634
2006-01-23 07:49:12 51°13.911 2°55.569 -999 2.893972 29.511264 -1.084634
2006-01-23 07:49:17 51°13.92 2°55.562 -999 2.893972 29.511264 -1.084634
2006-01-23 07:49:21 51°13.927 2°55.556 -999 2.897488 29.551666 -1.084634
2006-01-23 07:49:27 51°13.938 2°55.547 -999 2.905037 29.637467 -1.084634
2006-01-23 07:49:31 51°13.945 2°55.542 -999 2.910828 29.703512 -1.084634
2006-01-23 07:49:37 51°13.956 2°55.533 -999 2.914654 29.749156 -1.084634
2006-01-23 07:49:41 51°13.963 2°55.528 -999 2.914654 29.749156 -1.084634
2006-01-23 07:49:47 51°13.974 2°55.52 -999 2.927788 29.897121 -1.118343
2006-01-23 07:49:51 51°13.981 2°55.515 -999 2.934406 29.971723 -1.118343
2006-01-23 07:49:57 51°13.992 2°55.507 -999 2.93027 29.921661 -1.084634
2006-01-23 07:50:01 51°14 2°55.502 -999 2.947127 30.110851 -1.118343
2006-01-23 07:50:05 51°14.007 2°55.496 -999 2.955607 30.205654 -1.118343
2006-01-23 07:50:12 51°14.02 2°55.488 -999 2.955607 30.205654 -1.118343
2006-01-23 07:50:17 51°14.028 2°55.481 -999 2.95964 30.254638 -1.118343
2006-01-23 07:50:21 51°14.035 2°55.476 -999 2.957882 30.238264 -1.118343
2006-01-23 07:50:25 51°14.042 2°55.471 -999 2.967087 30.346532 -1.118343
2006-01-23 07:50:32 51°14.054 2°55.464 -999 2.9705 30.391183 -1.084634
2006-01-23 07:50:37 51°14.062 2°55.458 -999 2.969259 30.380649 -1.084634
2006-01-23 07:50:41 51°14.069 2°55.453 -999 2.972569 30.421538 -1.084634
2006-01-23 07:50:46 51°14.077 2°55.447 -999 2.972569 30.421538 -1.084634
2006-01-23 07:50:52 51°14.087 2°55.44 -999 2.969259 30.385009 -1.118343
2006-01-23 07:50:56 51°14.094 2°55.435 -999 2.972569 30.427651 -1.084634
2006-01-23 07:51:01 51°14.103 2°55.429 -999 2.96988 30.399875 -1.118343
2006-01-23 07:51:07 51°14.114 2°55.421 -999 2.969259 30.398098 -1.118343
2006-01-23 07:51:12 51°14.123 2°55.414 -999 2.962433 30.325298 -1.118343
2006-01-23 07:51:16 51°14.13 2°55.408 -999 2.962433 30.325298 -1.118343
2006-01-23 07:51:21 51°14.14 2°55.401 -999 2.973913 30.462966 -1.118343
2006-01-23 07:51:27 51°14.152 2°55.391 -999 2.966363 30.383686 -1.118343
2006-01-23 07:51:32 51°14.162 2°55.383 -999 2.964605 30.367292 -1.118343
2006-01-23 07:51:36 51°14.171 2°55.375 -999 2.968225 30.411734 -1.118343
2006-01-23 07:51:41 51°14.181 2°55.364 -999 2.968225 30.411734 -1.118343
2006-01-23 07:51:47 51°14.194 2°55.351 -999 2.96264 30.351173 -1.152053
2006-01-23 07:51:52 51°14.204 2°55.339 -999 2.957986 30.300276 -1.152053
2006-01-23 07:51:57 51°14.215 2°55.326 -999 2.957366 30.295 -1.152053
2006-01-23 07:52:01 51°14.223 2°55.315 -999 2.960365 30.33154 -1.152053
2006-01-23 07:52:05 51°14.231 2°55.304 -999 2.960158 30.332689 -1.152053
2006-01-23 07:52:12 51°14.245 2°55.284 -999 2.955608 30.284693 -1.152053
2006-01-23 07:52:17 51°14.255 2°55.269 -999 2.955608 30.284693 -1.152053
2006-01-23 07:52:21 51°14.263 2°55.256 -999 2.950333 30.225901 -1.152053
2006-01-23 07:52:25 51°14.27 2°55.243 -999 2.952505 30.252206 -1.152053
2006-01-23 07:52:31 51°14.282 2°55.223 -999 2.945369 30.175837 -1.152053
2006-01-23 07:52:37 51°14.292 2°55.202 -999 2.948265 30.212065 -1.152053
2006-01-23 07:52:41 51°14.3 2°55.188 -999 2.949196 30.224334 -1.152053
2006-01-23 07:52:45 51°14.307 2°55.174 -999 2.949196 30.224334 -1.152053
2006-01-23 07:52:52 51°14.32 2°55.148 -999 2.948782 30.221393 -1.185762
2006-01-23 07:52:57 51°14.329 2°55.129 -999 2.945163 30.180443 -1.185762
2006-01-23 07:53:01 51°14.337 2°55.113 -999 2.954781 30.288399 -1.185762
2006-01-23 07:53:07 51°14.347 2°55.09 -999 2.953746 30.271469 -1.185762
2006-01-23 07:53:12 51°14.357 2°55.07 -999 2.963778 30.378888 -1.185762
2006-01-23 07:53:16 51°14.364 2°55.055 -999 2.963778 30.378888 -1.185762
2006-01-23 07:53:21 51°14.374 2°55.036 -999 2.960365 30.337646 -1.219471
2006-01-23 07:53:27 51°14.387 2°55.014 -999 2.965536 30.391795 -1.219471
2006-01-23 07:53:32 51°14.398 2°54.996 -999 2.970604 30.445649 -1.219471
2006-01-23 07:53:36 51°14.407 2°54.983 -999 2.970087 30.437171 -1.219471
2006-01-23 07:53:41 51°14.418 2°54.966 -999 2.970087 30.437171 -1.219471
2006-01-23 07:53:47 51°14.432 2°54.946 -999 2.978257 30.524387 -1.219471
2006-01-23 07:53:52 51°14.444 2°54.929 -999 2.988186 30.628877 -1.219471
2006-01-23 07:53:56 51°14.453 2°54.915 -999 2.985393 30.585838 -1.219471
2006-01-23 07:54:01 51°14.465 2°54.897 -999 2.986324 30.584951 -1.219471
2006-01-23 07:54:05 51°14.475 2°54.884 -999 2.999666 30.726224 -1.219471
2006-01-23 07:54:12 51°14.493 2°54.86 -999 3.01063 30.851206 -1.219471
2006-01-23 07:54:17 51°14.506 2°54.842 -999 3.01063 30.851206 -1.219471
2006-01-23 07:54:21 51°14.517 2°54.828 -999 3.025835 31.019858 -1.219471
2006-01-23 07:54:25 51°14.529 2°54.816 -999 3.025835 31.014517 -1.219471
2006-01-23 07:54:32 51°14.55 2°54.794 -999 3.050246 31.284011 -1.219471
2006-01-23 07:54:37 51°14.566 2°54.78 -999 3.060798 31.396462 -1.219471
2006-01-23 07:54:41 51°14.579 2°54.768 -999 3.072487 31.527259 -1.219471
2006-01-23 07:54:45 51°14.592 2°54.758 -999 3.072487 31.527259 -1.219471
2006-01-23 07:54:51 51°14.611 2°54.742 -999 3.083659 31.644985 -1.219471
2006-01-23 07:54:57 51°14.63 2°54.725 -999 3.086452 31.67033 -1.219471
2006-01-23 07:55:01 51°14.643 2°54.714 -999 3.093176 31.741194 -1.219471
2006-01-23 07:55:05 51°14.656 2°54.702 -999 3.098556 31.799527 -1.219471
2006-01-23 07:55:12 51°14.679 2°54.683 -999 3.098556 31.799527 -1.219471
2006-01-23 07:55:16 51°14.692 2°54.671 -999 3.105798 31.87627 -1.219471
2006-01-23 07:55:21 51°14.708 2°54.657 -999 3.112418 31.93773 -1.253181
2006-01-23 07:55:25 51°14.721 2°54.645 -999 3.121522 32.019099 -1.253181
2006-01-23 07:55:32 51°14.744 2°54.624 -999 3.13911 32.188402 -1.253181
2006-01-23 07:55:36 51°14.756 2°54.612 -999 3.153491 32.326709 -1.253181
2006-01-23 07:55:41 51°14.772 2°54.596 -999 3.160941 32.389046 -1.253181
2006-01-23 07:55:45 51°14.784 2°54.584 -999 3.160941 32.389046 -1.253181
2006-01-23 07:55:52 51°14.807 2°54.563 -999 3.182979 32.618694 -1.253181
2006-01-23 07:55:56 51°14.82 2°54.551 -999 3.188153 32.656912 -1.253181
2006-01-23 07:56:01 51°14.836 2°54.537 -999 3.192291 32.688022 -1.253181
2006-01-23 07:56:05 51°14.849 2°54.526 -999 3.200259 32.760655 -1.28689
2006-01-23 07:56:11 51°14.869 2°54.509 -999 3.206157 32.811653 -1.28689
2006-01-23 07:56:16 51°14.885 2°54.495 -999 3.206157 32.811653 -1.28689
2006-01-23 07:56:21 51°14.901 2°54.481 -999 3.212676 32.87153 -1.28689
2006-01-23 07:56:26 51°14.918 2°54.467 -999 3.218677 32.929262 -1.28689
2006-01-23 07:56:32 51°14.938 2°54.45 -999 3.217228 32.904416 -1.28689
2006-01-23 07:56:36 51°14.951 2°54.438 -999 3.223541 32.965638 -1.28689
2006-01-23 07:56:41 51°14.967 2°54.424 -999 3.221367 32.932588 -1.28689
2006-01-23 07:56:45 51°14.98 2°54.412 -999 3.221367 32.932588 -1.28689
2006-01-23 07:56:52 51°15.002 2°54.392 -999 3.227059 32.990498 -1.28689
2006-01-23 07:56:56 51°15.015 2°54.38 -999 3.231094 33.030586 -1.28689
2006-01-23 07:57:01 51°15.03 2°54.365 -999 3.226024 32.96847 -1.28689
2006-01-23 07:57:07 51°15.05 2°54.347 -999 3.229542 33.00175 -1.28689
2006-01-23 07:57:11 51°15.063 2°54.336 -999 3.229542 33.00175 -1.28689
2006-01-23 07:57:17 51°15.082 2°54.318 -999 3.236786 33.07721 -1.28689
2006-01-23 07:57:21 51°15.095 2°54.306 -999 3.235233 33.052122 -1.28689
2006-01-23 07:57:27 51°15.114 2°54.289 -999 3.236268 33.05633 -1.28689
2006-01-23 07:57:32 51°15.131 2°54.275 -999 3.234199 33.031028 -1.3206
2006-01-23 07:57:36 51°15.144 2°54.264 -999 3.235233 33.039927 -1.28689
2006-01-23 07:57:41 51°15.16 2°54.249 -999 3.239994 33.08911 -1.28689
2006-01-23 07:57:47 51°15.18 2°54.232 -999 3.239994 33.08911 -1.28689
2006-01-23 07:57:52 51°15.196 2°54.217 -999 3.233371 33.010416 -1.3206
2006-01-23 07:57:57 51°15.212 2°54.203 -999 3.245789 33.147184 -1.3206
2006-01-23 07:58:01 51°15.225 2°54.191 -999 3.241235 33.090958 -1.3206
2006-01-23 07:58:07 51°15.244 2°54.173 -999 3.248479 33.171993 -1.28689
2006-01-23 07:58:12 51°15.26 2°54.158 -999 3.243305 33.116255 -1.3206
2006-01-23 07:58:16 51°15.273 2°54.146 -999 3.243305 33.116255 -1.3206
2006-01-23 07:58:21 51°15.289 2°54.132 -999 3.24465 33.13806 -1.28689
2006-01-23 07:58:27 51°15.308 2°54.113 -999 3.246617 33.172554 -1.3206
2006-01-23 07:58:32 51°15.324 2°54.099 -999 3.235751 33.063613 -1.3206
2006-01-23 07:58:37 51°15.341 2°54.084 -999 3.238545 33.118768 -1.28689
2006-01-23 07:58:41 51°15.354 2°54.072 -999 3.238545 33.118768 -1.28689
2006-01-23 07:58:47 51°15.374 2°54.054 -999 3.234303 33.097026 -1.28689
2006-01-23 07:58:52 51°15.39 2°54.039 -999 3.226231 33.035582 -1.3206
2006-01-23 07:58:57 51°15.406 2°54.025 -999 3.223541 33.033274 -1.28689
2006-01-23 07:59:01 51°15.419 2°54.013 -999 3.212469 32.933866 -1.28689
2006-01-23 07:59:05 51°15.432 2°54.001 -999 3.206468 32.885408 -1.28689
2006-01-23 07:59:12 51°15.455 2°53.98 -999 3.205951 32.900188 -1.28689
2006-01-23 07:59:17 51°15.472 2°53.965 -999 3.205951 32.900188 -1.28689
2006-01-23 07:59:21 51°15.485 2°53.953 -999 3.202743 32.877809 -1.28689
2006-01-23 07:59:25 51°15.497 2°53.941 -999 3.200674 32.866484 -1.28689
2006-01-23 07:59:31 51°15.517 2°53.924 -999 3.195397 32.816784 -1.28689
2006-01-23 07:59:37 51°15.536 2°53.906 -999 3.19995 32.881744 -1.28689
2006-01-23 07:59:41 51°15.549 2°53.895 -999 3.196742 32.857454 -1.28689
2006-01-23 07:59:45 51°15.562 2°53.883 -999 3.196742 32.857454 -1.28689
2006-01-23 07:59:52 51°15.585 2°53.862 -999 3.198501 32.884069 -1.28689
2006-01-23 07:59:56 51°15.599 2°53.85 -999 3.201398 32.920836 -1.28689
2006-01-23 08:00:02 51°15.619 2°53.832 -999 3.198708 32.895842 -1.28689
2006-01-23 08:00:05 51°15.629 2°53.824 -999 3.186809 32.766893 -1.28689
2006-01-23 08:00:12 51°15.651 2°53.803 -999 3.200881 32.9338 -1.28689
2006-01-23 08:00:16 51°15.664 2°53.791 -999 3.200881 32.9338 -1.28689
2006-01-23 08:00:21 51°15.68 2°53.776 -999 3.191672 32.830742 -1.28689
2006-01-23 08:00:25 51°15.693 2°53.764 -999 3.196018 32.882144 -1.28689
2006-01-23 08:00:32 51°15.716 2°53.743 -999 3.196535 32.889925 -1.28689
2006-01-23 08:00:37 51°15.732 2°53.728 -999 3.199847 32.927666 -1.28689
2006-01-23 08:00:41 51°15.746 2°53.716 -999 3.199847 32.927666 -1.28689
2006-01-23 08:00:45 51°15.759 2°53.705 -999 3.194776 32.868936 -1.28689
2006-01-23 08:00:52 51°15.782 2°53.684 -999 3.197674 32.898185 -1.28689
2006-01-23 08:00:57 51°15.799 2°53.67 -999 3.197467 32.896769 -1.28689
2006-01-23 08:01:01 51°15.812 2°53.658 -999 3.200467 32.930026 -1.28689
2006-01-23 08:01:05 51°15.825 2°53.646 -999 3.199743 32.918941 -1.28689
2006-01-23 08:01:12 51°15.848 2°53.625 -999 3.20233 32.944649 -1.28689
2006-01-23 08:01:17 51°15.864 2°53.61 -999 3.20233 32.944649 -1.28689
2006-01-23 08:01:21 51°15.877 2°53.598 -999 3.206055 32.985216 -1.28689
2006-01-23 08:01:25 51°15.89 2°53.585 -999 3.201088 32.925784 -1.28689
2006-01-23 08:01:32 51°15.913 2°53.565 -999 3.202123 32.936631 -1.28689
2006-01-23 08:01:37 51°15.929 2°53.55 -999 3.206055 32.977661 -1.253181
2006-01-23 08:01:41 51°15.942 2°53.538 -999 3.209883 33.01562 -1.28689
2006-01-23 08:01:47 51°15.962 2°53.52 -999 3.209883 33.01562 -1.28689
2006-01-23 08:01:52 51°15.978 2°53.506 -999 3.209677 33.009482 -1.28689
2006-01-23 08:01:57 51°15.995 2°53.491 -999 3.198294 32.881713 -1.28689
2006-01-23 08:02:01 51°16.008 2°53.479 -999 3.206779 32.979305 -1.28689
2006-01-23 08:02:07 51°16.028 2°53.462 -999 3.212057 33.038492 -1.28689
2006-01-23 08:02:12 51°16.044 2°53.447 -999 3.216299 33.088738 -1.28689
2006-01-23 08:02:16 51°16.057 2°53.436 -999 3.216299 33.088738 -1.28689
2006-01-23 08:02:21 51°16.074 2°53.421 -999 3.20978 33.016331 -1.28689
2006-01-23 08:02:25 51°16.087 2°53.409 -999 3.211436 33.036145 -1.28689
2006-01-23 08:02:32 51°16.11 2°53.389 -999 3.216299 33.092528 -1.28689
2006-01-23 08:02:36 51°16.123 2°53.377 -999 3.212574 33.050064 -1.28689
2006-01-23 08:02:41 51°16.139 2°53.362 -999 3.211953 33.041096 -1.28689
2006-01-23 08:02:45 51°16.152 2°53.35 -999 3.211953 33.041096 -1.28689
2006-01-23 08:02:51 51°16.172 2°53.332 -999 3.211539 33.034487 -1.3206
2006-01-23 08:02:56 51°16.188 2°53.318 -999 3.213195 33.051463 -1.28689
2006-01-23 08:03:01 51°16.204 2°53.303 -999 3.217955 33.105716 -1.3206
2006-01-23 08:03:07 51°16.224 2°53.285 -999 3.210401 33.019625 -1.3206
2006-01-23 08:03:12 51°16.24 2°53.271 -999 3.214437 33.065615 -1.3206
2006-01-23 08:03:16 51°16.254 2°53.259 -999 3.214437 33.065615 -1.3206
2006-01-23 08:03:21 51°16.27 2°53.246 -999 3.220128 33.129539 -1.28689
2006-01-23 08:03:25 51°16.284 2°53.235 -999 3.215161 33.072924 -1.3206
2006-01-23 08:03:32 51°16.307 2°53.215 -999 3.217644 33.100282 -1.28689
2006-01-23 08:03:36 51°16.32 2°53.204 -999 3.218162 33.105232 -1.3206
2006-01-23 08:03:41 51°16.337 2°53.19 -999 3.219507 33.118669 -1.3206
2006-01-23 08:03:45 51°16.35 2°53.18 -999 3.219507 33.118669 -1.3206
2006-01-23 08:03:52 51°16.374 2°53.16 -999 3.217748 33.097672 -1.3206
2006-01-23 08:03:56 51°16.387 2°53.15 -999 3.219196 33.113235 -1.28689
2006-01-23 08:04:01 51°16.404 2°53.137 -999 3.215678 33.072194 -1.3206
2006-01-23 08:04:05 51°16.417 2°53.126 -999 3.223232 33.160185 -1.28689
2006-01-23 08:04:11 51°16.437 2°53.11 -999 3.216713 33.084932 -1.3206
2006-01-23 08:04:17 51°16.457 2°53.094 -999 3.216713 33.084932 -1.3206
2006-01-23 08:04:22 51°16.474 2°53.079 -999 3.21723 33.087988 -1.3206
2006-01-23 08:04:27 51°16.491 2°53.066 -999 3.224784 33.172184 -1.3206
2006-01-23 08:04:32 51°16.507 2°53.052 -999 3.209469 32.994847 -1.28689
2006-01-23 08:04:37 51°16.524 2°53.038 -999 3.218472 33.097402 -1.3206
2006-01-23 08:04:42 51°16.541 2°53.025 -999 3.22199 33.136546 -1.28689
2006-01-23 08:04:46 51°16.554 2°53.013 -999 3.22199 33.136546 -1.28689
2006-01-23 08:04:52 51°16.574 2°52.998 -999 3.219507 33.107298 -1.3206
2006-01-23 08:04:56 51°16.587 2°52.987 -999 3.212263 33.02478 -1.3206
2006-01-23 08:05:01 51°16.604 2°52.973 -999 3.218265 33.095991 -1.3206
2006-01-23 08:05:07 51°16.625 2°52.958 -999 3.221473 33.136338 -1.3206
2006-01-23 08:05:12 51°16.641 2°52.944 -999 3.216609 33.083753 -1.3206
2006-01-23 08:05:17 51°16.658 2°52.931 -999 3.216609 33.083753 -1.3206
2006-01-23 08:05:21 51°16.672 2°52.92 -999 3.225095 33.183319 -1.3206
2006-01-23 08:05:27 51°16.692 2°52.903 -999 3.223232 33.163982 -1.3206
2006-01-23 08:05:32 51°16.709 2°52.89 -999 3.220852 33.136848 -1.3206
2006-01-23 08:05:37 51°16.725 2°52.876 -999 3.214126 33.064916 -1.3206
2006-01-23 08:05:42 51°16.742 2°52.863 -999 3.221784 33.156956 -1.3206
2006-01-23 08:05:46 51°16.755 2°52.851 -999 3.221784 33.156956 -1.3206
2006-01-23 08:05:52 51°16.775 2°52.835 -999 3.215058 33.086898 -1.3206
2006-01-23 08:05:57 51°16.792 2°52.821 -999 3.220438 33.152058 -1.3206
2006-01-23 08:06:01 51°16.805 2°52.811 -999 3.217955 33.130375 -1.3206
2006-01-23 08:06:05 51°16.818 2°52.8 -999 3.214851 33.102551 -1.3206
2006-01-23 08:06:12 51°16.842 2°52.781 -999 3.213506 33.089102 -1.3206
2006-01-23 08:06:16 51°16.855 2°52.77 -999 3.213506 33.089102 -1.3206
2006-01-23 08:06:21 51°16.871 2°52.756 -999 3.210608 33.05605 -1.3206
2006-01-23 08:06:26 51°16.887 2°52.741 -999 3.216506 33.123339 -1.3206
2006-01-23 08:06:32 51°16.907 2°52.723 -999 3.217438 33.134915 -1.3206
2006-01-23 08:06:37 51°16.923 2°52.708 -999 3.217231 33.134453 -1.3206
2006-01-23 08:06:41 51°16.936 2°52.695 -999 3.217438 33.137764 -1.3206
2006-01-23 08:06:45 51°16.949 2°52.683 -999 3.217438 33.137764 -1.3206
2006-01-23 08:06:51 51°16.968 2°52.665 -999 3.214851 33.109193 -1.3206
2006-01-23 08:06:56 51°16.985 2°52.651 -999 3.215989 33.122182 -1.3206
2006-01-23 08:07:02 51°17.005 2°52.633 -999 3.2193 33.159021 -1.3206
2006-01-23 08:07:05 51°17.015 2°52.624 -999 3.214126 33.097133 -1.3206
2006-01-23 08:07:12 51°17.038 2°52.603 -999 3.215782 33.114125 -1.3206
2006-01-23 08:07:16 51°17.051 2°52.592 -999 3.215782 33.114125 -1.3206
2006-01-23 08:07:21 51°17.067 2°52.577 -999 3.212264 33.071145 -1.3206
2006-01-23 08:07:27 51°17.087 2°52.559 -999 3.20978 33.041873 -1.3206
2006-01-23 08:07:32 51°17.103 2°52.544 -999 3.212264 33.06925 -1.3206
2006-01-23 08:07:37 51°17.12 2°52.529 -999 3.221059 33.167691 -1.3206
2006-01-23 08:07:42 51°17.136 2°52.514 -999 3.213505 33.081517 -1.3206
2006-01-23 08:07:47 51°17.152 2°52.498 -999 3.213505 33.081517 -1.3206
2006-01-23 08:07:52 51°17.168 2°52.483 -999 3.210194 33.045646 -1.3206
2006-01-23 08:07:57 51°17.184 2°52.467 -999 3.210712 33.053441 -1.3206
2006-01-23 08:08:01 51°17.197 2°52.455 -999 3.211539 33.064778 -1.3206
2006-01-23 08:08:05 51°17.21 2°52.442 -999 3.214023 33.096901 -1.3206
2006-01-23 08:08:12 51°17.233 2°52.42 -999 3.215058 33.112504 -1.3206
2006-01-23 08:08:17 51°17.249 2°52.404 -999 3.215058 33.112504 -1.3206
2006-01-23 08:08:21 51°17.262 2°52.391 -999 3.206055 33.015474 -1.3206
2006-01-23 08:08:27 51°17.281 2°52.371 -999 3.205538 33.015251 -1.3206
2006-01-23 08:08:32 51°17.296 2°52.355 -999 3.205848 33.024474 -1.3206
2006-01-23 08:08:37 51°17.312 2°52.338 -999 3.200261 32.965443 -1.3206
2006-01-23 08:08:41 51°17.325 2°52.325 -999 3.20678 33.044579 -1.3206
2006-01-23 08:08:46 51°17.341 2°52.308 -999 3.20678 33.044579 -1.3206
2006-01-23 08:08:52 51°17.359 2°52.287 -999 3.205228 33.027808 -1.3206
2006-01-23 08:08:57 51°17.374 2°52.269 -999 3.199847 32.96923 -1.28689
2006-01-23 08:09:02 51°17.388 2°52.25 -999 3.199744 32.972779 -1.3206
2006-01-23 08:09:07 51°17.403 2°52.23 -999 3.194053 32.912546 -1.28689
2006-01-23 08:09:12 51°17.416 2°52.209 -999 3.195915 32.938532 -1.28689
2006-01-23 08:09:17 51°17.429 2°52.189 -999 3.195915 32.938532 -1.28689
2006-01-23 08:09:21 51°17.439 2°52.171 -999 3.194363 32.930265 -1.3206
2006-01-23 08:09:25 51°17.449 2°52.154 -999 3.190121 32.89883 -1.3206
2006-01-23 08:09:32 51°17.466 2°52.122 -999 3.182878 32.839697 -1.3206
2006-01-23 08:09:36 51°17.476 2°52.103 -999 3.180085 32.834208 -1.3206
2006-01-23 08:09:41 51°17.487 2°52.079 -999 3.180085 32.834208 -1.3206
2006-01-23 08:09:47 51°17.499 2°52.049 -999 3.169117 32.726721 -1.3206
2006-01-23 08:09:52 51°17.51 2°52.025 -999 3.167151 32.7278 -1.3206
2006-01-23 08:09:56 51°17.518 2°52.005 -999 3.157012 32.631552 -1.3206
2006-01-23 08:10:01 51°17.528 2°51.98 -999 3.157219 32.647098 -1.3206
2006-01-23 08:10:07 51°17.54 2°51.95 -999 3.148321 32.552764 -1.3206
2006-01-23 08:10:12 51°17.55 2°51.924 -999 3.151425 32.592996 -1.28689
2006-01-23 08:10:16 51°17.558 2°51.904 -999 3.151425 32.592996 -1.28689
2006-01-23 08:10:21 51°17.567 2°51.878 -999 3.144803 32.520009 -1.28689
2006-01-23 08:10:27 51°17.578 2°51.848 -999 3.150494 32.583275 -1.28689
2006-01-23 08:10:32 51°17.588 2°51.822 -999 3.145631 32.529484 -1.3206
2006-01-23 08:10:37 51°17.597 2°51.796 -999 3.142217 32.490403 -1.3206
2006-01-23 08:10:41 51°17.605 2°51.776 -999 3.142631 32.494202 -1.3206
2006-01-23 08:10:47 51°17.616 2°51.743 -999 3.142631 32.494202 -1.3206
2006-01-23 08:10:52 51°17.625 2°51.717 -999 3.14439 32.512457 -1.3206
2006-01-23 08:10:57 51°17.633 2°51.691 -999 3.146459 32.534265 -1.3206
2006-01-23 08:11:01 51°17.64 2°51.67 -999 3.148735 32.558441 -1.3206
2006-01-23 08:11:07 51°17.65 2°51.638 -999 3.151425 32.588295 -1.3206
2006-01-23 08:11:12 51°17.658 2°51.612 -999 3.150597 32.57788 -1.3206
2006-01-23 08:11:17 51°17.667 2°51.586 -999 3.150597 32.57788 -1.3206
2006-01-23 08:11:22 51°17.676 2°51.56 -999 3.149045 32.558236 -1.3206
2006-01-23 08:11:27 51°17.684 2°51.533 -999 3.148218 32.545008 -1.3206
2006-01-23 08:11:32 51°17.693 2°51.507 -999 3.142734 32.477581 -1.3206
2006-01-23 08:11:36 51°17.7 2°51.486 -999 3.149252 32.547461 -1.3206
2006-01-23 08:11:41 51°17.708 2°51.46 -999 3.144907 32.493065 -1.3206
2006-01-23 08:11:47 51°17.719 2°51.428 -999 3.144907 32.493065 -1.3206
2006-01-23 08:11:51 51°17.726 2°51.407 -999 3.147286 32.515595 -1.3206
2006-01-23 08:11:56 51°17.735 2°51.38 -999 3.154736 32.596108 -1.3206
2006-01-23 08:12:01 51°17.744 2°51.354 -999 3.160012 32.651771 -1.3206
2006-01-23 08:12:07 51°17.754 2°51.323 -999 3.14801 32.507949 -1.3206
2006-01-23 08:12:12 51°17.763 2°51.296 -999 3.157115 32.605476 -1.3206
2006-01-23 08:12:17 51°17.772 2°51.27 -999 3.157115 32.605476 -1.3206
2006-01-23 08:12:22 51°17.781 2°51.244 -999 3.160012 32.631084 -1.3206
2006-01-23 08:12:27 51°17.79 2°51.217 -999 3.169841 32.735946 -1.3206
2006-01-23 08:12:32 51°17.798 2°51.191 -999 3.162392 32.644191 -1.3206
2006-01-23 08:12:37 51°17.807 2°51.164 -999 3.167255 32.69319 -1.3206
2006-01-23 08:12:41 51°17.814 2°51.143 -999 3.168496 32.701735 -1.3206
2006-01-23 08:12:45 51°17.821 2°51.122 -999 3.168496 32.701735 -1.3206
2006-01-23 08:12:52 51°17.833 2°51.084 -999 3.157115 32.565143 -1.3206
2006-01-23 08:12:57 51°17.841 2°51.058 -999 3.169531 32.702268 -1.3206
2006-01-23 08:13:01 51°17.847 2°51.036 -999 3.18143 32.833528 -1.3206
2006-01-23 08:13:07 51°17.857 2°51.004 -999 3.181947 32.833776 -1.3206
2006-01-23 08:13:11 51°17.864 2°50.983 -999 3.181947 32.833776 -1.3206
2006-01-23 08:13:17 51°17.874 2°50.951 -999 3.185361 32.863351 -1.3206
2006-01-23 08:13:21 51°17.882 2°50.93 -999 3.187638 32.879912 -1.3206
2006-01-23 08:13:25 51°17.889 2°50.909 -999 3.190224 32.896232 -1.3206
2006-01-23 08:13:31 51°17.899 2°50.878 -999 3.195501 32.945154 -1.3206
2006-01-23 08:13:36 51°17.907 2°50.851 -999 3.197053 32.951526 -1.3206
2006-01-23 08:13:42 51°17.917 2°50.819 -999 3.199019 32.961674 -1.3206
2006-01-23 08:13:47 51°17.925 2°50.793 -999 3.199019 32.961674 -1.3206
2006-01-23 08:13:52 51°17.934 2°50.766 -999 3.202848 32.99307 -1.3206
2006-01-23 08:13:56 51°17.94 2°50.745 -999 3.208953 33.049478 -1.3206
2006-01-23 08:14:01 51°17.948 2°50.719 -999 3.209677 33.048268 -1.3206
2006-01-23 08:14:05 51°17.955 2°50.697 -999 3.216817 33.121186 -1.3206
2006-01-23 08:14:11 51°17.965 2°50.665 -999 3.21423 33.085987 -1.3206
2006-01-23 08:14:16 51°17.972 2°50.639 -999 3.21423 33.085987 -1.3206
2006-01-23 08:14:21 51°17.981 2°50.612 -999 3.213505 33.072989 -1.3206
2006-01-23 08:14:25 51°17.987 2°50.59 -999 3.219818 33.138332 -1.3206
2006-01-23 08:14:32 51°17.998 2°50.553 -999 3.217748 33.107148 -1.3206
2006-01-23 08:14:36 51°18.005 2°50.531 -999 3.220542 33.135206 -1.3206
2006-01-23 08:14:41 51°18.012 2°50.504 -999 3.221887 33.150543 -1.3206
2006-01-23 08:14:46 51°18.021 2°50.477 -999 3.221887 33.150543 -1.3206
2006-01-23 08:14:52 51°18.03 2°50.445 -999 3.22168 33.149132 -1.3206
2006-01-23 08:14:57 51°18.038 2°50.418 -999 3.222715 33.162829 -1.3206
2006-01-23 08:15:01 51°18.045 2°50.397 -999 3.222818 33.164959 -1.3206
2006-01-23 08:15:05 51°18.051 2°50.376 -999 3.221473 33.14962 -1.3206
2006-01-23 08:15:12 51°18.062 2°50.338 -999 3.220956 33.140874 -1.3206
2006-01-23 08:15:17 51°18.07 2°50.311 -999 3.220956 33.140874 -1.3206
2006-01-23 08:15:22 51°18.078 2°50.284 -999 3.221163 33.142284 -1.3206
2006-01-23 08:15:27 51°18.086 2°50.257 -999 3.22199 33.150774 -1.3206
2006-01-23 08:15:31 51°18.092 2°50.235 -999 3.222197 33.152184 -1.3206
2006-01-23 08:15:37 51°18.101 2°50.203 -999 3.222301 33.150517 -1.3206
2006-01-23 08:15:41 51°18.107 2°50.181 -999 3.223336 33.159466 -1.3206
2006-01-23 08:15:45 51°18.113 2°50.16 -999 3.223336 33.159466 -1.3206
2006-01-23 08:15:51 51°18.122 2°50.127 -999 3.22406 33.164876 -1.3206
2006-01-23 08:15:56 51°18.129 2°50.1 -999 3.208849 32.98872 -1.3206
2006-01-23 08:16:02 51°18.138 2°50.067 -999 3.223439 33.153055 -1.3206
2006-01-23 08:16:07 51°18.146 2°50.04 -999 3.22644 33.18441 -1.3206
2006-01-23 08:16:12 51°18.153 2°50.013 -999 3.224163 33.156567 -1.3206
2006-01-23 08:16:16 51°18.159 2°49.992 -999 3.224163 33.156567 -1.3206
2006-01-23 08:16:21 51°18.167 2°49.965 -999 3.222715 33.138163 -1.3206
2006-01-23 08:16:26 51°18.175 2°49.938 -999 3.223646 33.147827 -1.3206
2006-01-23 08:16:32 51°18.184 2°49.906 -999 3.226957 33.18556 -1.3206
2006-01-23 08:16:37 51°18.192 2°49.879 -999 3.225509 33.169999 -1.3206
2006-01-23 08:16:41 51°18.198 2°49.857 -999 3.217851 33.086541 -1.3206
2006-01-23 08:16:46 51°18.205 2°49.83 -999 3.217851 33.086541 -1.3206
2006-01-23 08:16:52 51°18.215 2°49.798 -999 3.221369 33.130418 -1.3206
2006-01-23 08:16:57 51°18.222 2°49.77 -999 3.217541 33.097208 -1.3206
2006-01-23 08:17:01 51°18.228 2°49.749 -999 3.21185 33.040863 -1.3206
2006-01-23 08:17:06 51°18.235 2°49.722 -999 3.209263 33.018943 -1.3206
2006-01-23 08:17:12 51°18.244 2°49.689 -999 3.208125 33.015424 -1.3206
2006-01-23 08:17:17 51°18.252 2°49.662 -999 3.208125 33.015424 -1.3206
2006-01-23 08:17:21 51°18.258 2°49.641 -999 3.208642 33.026053 -1.3206
2006-01-23 08:17:26 51°18.266 2°49.614 -999 3.210815 33.055569 -1.3206
2006-01-23 08:17:31 51°18.273 2°49.587 -999 3.209884 33.050629 -1.3206
2006-01-23 08:17:36 51°18.281 2°49.56 -999 3.207193 33.021833 -1.3206
2006-01-23 08:17:41 51°18.288 2°49.532 -999 3.204296 32.989733 -1.3206
2006-01-23 08:17:46 51°18.295 2°49.505 -999 3.204296 32.989733 -1.3206
2006-01-23 08:17:51 51°18.303 2°49.478 -999 3.205227 33.000354 -1.3206
2006-01-23 08:17:57 51°18.312 2°49.445 -999 3.205848 33.010274 -1.3206
2006-01-23 08:18:01 51°18.319 2°49.423 -999 3.201813 32.96519 -1.3206
2006-01-23 08:18:05 51°18.325 2°49.402 -999 3.204607 32.997056 -1.3206
2006-01-23 08:18:11 51°18.334 2°49.369 -999 3.192707 32.859475 -1.3206
2006-01-23 08:18:16 51°18.343 2°49.343 -999 3.192707 32.859475 -1.3206
2006-01-23 08:18:22 51°18.351 2°49.31 -999 3.205331 33.002481 -1.3206
2006-01-23 08:18:27 51°18.358 2°49.283 -999 3.204917 32.996814 -1.3206
2006-01-23 08:18:32 51°18.366 2°49.256 -999 3.208746 33.038592 -1.3206
2006-01-23 08:18:36 51°18.371 2°49.234 -999 3.205434 32.997986 -1.3206
2006-01-23 08:18:41 51°18.379 2°49.207 -999 3.206159 33.004355 -1.3206
2006-01-23 08:18:45 51°18.385 2°49.185 -999 3.206159 33.004355 -1.3206
2006-01-23 08:18:52 51°18.396 2°49.148 -999 3.20978 33.044713 -1.3206
2006-01-23 08:18:57 51°18.403 2°49.121 -999 3.200881 32.941349 -1.3206
2006-01-23 08:19:01 51°18.408 2°49.099 -999 3.198191 32.907852 -1.3206
2006-01-23 08:19:07 51°18.417 2°49.067 -999 3.2074 33.009057 -1.3206
2006-01-23 08:19:12 51°18.425 2°49.04 -999 3.206366 32.996314 -1.3206
2006-01-23 08:19:17 51°18.434 2°49.013 -999 3.206366 32.996314 -1.3206
2006-01-23 08:19:21 51°18.441 2°48.99 -999 3.210712 33.045866 -1.3206
2006-01-23 08:19:26 51°18.449 2°48.963 -999 3.206159 32.9949 -1.3206
2006-01-23 08:19:32 51°18.458 2°48.93 -999 3.206676 33.00269 -1.3206
2006-01-23 08:19:37 51°18.466 2°48.903 -999 3.207607 33.016146 -1.28689
2006-01-23 08:19:41 51°18.472 2°48.881 -999 3.206469 33.007895 -1.28689
2006-01-23 08:19:47 51°18.481 2°48.848 -999 3.206469 33.007895 -1.28689
2006-01-23 08:19:52 51°18.489 2°48.821 -999 3.202951 32.969666 -1.3206
2006-01-23 08:19:57 51°18.496 2°48.793 -999 3.201916 32.960701 -1.28689
2006-01-23 08:20:02 51°18.504 2°48.765 -999 3.19964 32.940408 -1.28689
2006-01-23 08:20:06 51°18.51 2°48.744 -999 3.19757 32.919639 -1.28689
2006-01-23 08:20:12 51°18.519 2°48.711 -999 3.189913 32.834217 -1.3206
2006-01-23 08:20:16 51°18.526 2°48.69 -999 3.189913 32.834217 -1.3206
2006-01-23 08:20:21 51°18.533 2°48.662 -999 3.202537 32.981014 -1.28689
2006-01-23 08:20:25 51°18.54 2°48.64 -999 3.199123 32.943951 -1.28689
2006-01-23 08:20:32 51°18.551 2°48.603 -999 3.200364 32.960006 -1.28689
2006-01-23 08:20:36 51°18.556 2°48.581 -999 3.197053 32.923177 -1.28689
2006-01-23 08:20:41 51°18.564 2°48.554 -999 3.19726 32.929315 -1.28689
2006-01-23 08:20:45 51°18.57 2°48.531 -999 3.19726 32.929315 -1.28689
2006-01-23 08:20:51 51°18.58 2°48.5 -999 3.197777 32.939941 -1.28689
2006-01-23 08:20:56 51°18.587 2°48.471 -999 3.195708 32.920106 -1.28689
2006-01-23 08:21:01 51°18.595 2°48.444 -999 3.195087 32.918688 -1.28689
2006-01-23 08:21:05 51°18.601 2°48.423 -999 3.192604 32.892237 -1.28689
2006-01-23 08:21:12 51°18.611 2°48.384 -999 3.194777 32.920813 -1.28689
2006-01-23 08:21:16 51°18.618 2°48.362 -999 3.194777 32.920813 -1.28689
2006-01-23 08:21:21 51°18.625 2°48.335 -999 3.190948 32.879949 -1.28689
2006-01-23 08:21:25 51°18.631 2°48.313 -999 3.193018 32.905458 -1.28689
2006-01-23 08:21:32 51°18.642 2°48.275 -999 3.194053 32.919159 -1.28689
2006-01-23 08:21:36 51°18.648 2°48.253 -999 3.194984 32.930736 -1.28689
2006-01-23 08:21:41 51°18.656 2°48.226 -999 3.193639 32.916324 -1.28689
2006-01-23 08:21:47 51°18.665 2°48.193 -999 3.193639 32.916324 -1.28689
2006-01-23 08:21:52 51°18.673 2°48.166 -999 3.192707 32.906637 -1.28689
2006-01-23 08:21:57 51°18.681 2°48.139 -999 3.192397 32.903094 -1.28689
2006-01-23 08:22:01 51°18.687 2°48.117 -999 3.194156 32.921286 -1.28689
2006-01-23 08:22:06 51°18.695 2°48.09 -999 3.191776 32.893173 -1.28689
2006-01-23 08:22:11 51°18.702 2°48.062 -999 3.191776 32.893173 -1.28689
2006-01-23 08:22:17 51°18.712 2°48.029 -999 3.181739 32.777693 -1.28689
2006-01-23 08:22:21 51°18.718 2°48.007 -999 3.19726 32.952943 -1.28689
2006-01-23 08:22:26 51°18.725 2°47.98 -999 3.197778 32.956012 -1.28689
2006-01-23 08:22:31 51°18.733 2°47.953 -999 3.196329 32.937585 -1.28689
2006-01-23 08:22:37 51°18.743 2°47.92 -999 3.194984 32.920341 -1.28689
2006-01-23 08:22:41 51°18.75 2°47.899 -999 3.199433 32.967344 -1.3206
2006-01-23 08:22:45 51°18.756 2°47.877 -999 3.199433 32.967344 -1.3206
2006-01-23 08:22:52 51°18.767 2°47.839 -999 3.197881 32.946792 -1.3206
2006-01-23 08:22:56 51°18.773 2°47.818 -999 3.196846 32.932149 -1.28689
2006-01-23 08:23:01 51°18.782 2°47.791 -999 3.191983 32.871947 -1.28689
2006-01-23 08:23:07 51°18.792 2°47.759 -999 3.200468 32.965913 -1.28689
2006-01-23 08:23:12 51°18.799 2°47.732 -999 3.200157 32.959535 -1.28689
2006-01-23 08:23:16 51°18.806 2°47.711 -999 3.200157 32.959535 -1.28689
2006-01-23 08:23:21 51°18.814 2°47.684 -999 3.203675 32.994946 -1.3206
2006-01-23 08:23:27 51°18.823 2°47.652 -999 3.206366 33.019962 -1.3206
2006-01-23 08:23:32 51°18.831 2°47.625 -999 3.205124 33.001066 -1.28689
2006-01-23 08:23:36 51°18.838 2°47.604 -999 3.206366 33.011445 -1.28689
2006-01-23 08:23:41 51°18.845 2°47.577 -999 3.204917 32.99114 -1.28689
2006-01-23 08:23:47 51°18.854 2°47.545 -999 3.204917 32.99114 -1.28689
2006-01-23 08:23:52 51°18.861 2°47.519 -999 3.211746 33.064296 -1.28689
2006-01-23 08:23:57 51°18.869 2°47.492 -999 3.212781 33.072308 -1.28689
2006-01-23 08:24:01 51°18.875 2°47.471 -999 3.214023 33.084575 -1.28689
2006-01-23 08:24:06 51°18.884 2°47.444 -999 3.213299 33.082 -1.3206
2006-01-23 08:24:12 51°18.893 2°47.412 -999 3.206159 33.016655 -1.3206
2006-01-23 08:24:17 51°18.901 2°47.385 -999 3.206159 33.016655 -1.3206
2006-01-23 08:24:21 51°18.906 2°47.364 -999 3.203055 32.994485 -1.3206
2006-01-23 08:24:26 51°18.914 2°47.337 -999 3.202744 33.003248 -1.3206
2006-01-23 08:24:32 51°18.922 2°47.305 -999 3.20202 33.008238 -1.3206
2006-01-23 08:24:37 51°18.93 2°47.277 -999 3.193639 32.925776 -1.3206
2006-01-23 08:24:41 51°18.937 2°47.256 -999 3.194984 32.952493 -1.3206
2006-01-23 08:24:45 51°18.944 2°47.234 -999 3.194984 32.952493 -1.3206
2006-01-23 08:24:51 51°18.954 2°47.203 -999 3.187741 32.87637 -1.3206
2006-01-23 08:24:57 51°18.963 2°47.17 -999 3.195088 32.965986 -1.3206
2006-01-23 08:25:02 51°18.97 2°47.143 -999 3.193018 32.941389 -1.3206
2006-01-23 08:25:07 51°18.978 2°47.116 -999 3.191983 32.925781 -1.3206
2006-01-23 08:25:12 51°18.986 2°47.09 -999 3.194156 32.944929 -1.3206
2006-01-23 08:25:16 51°18.992 2°47.068 -999 3.194156 32.944929 -1.3206
2006-01-23 08:25:21 51°19.001 2°47.04 -999 3.194984 32.947761 -1.28689
2006-01-23 08:25:27 51°19.01 2°47.008 -999 3.193742 32.927903 -1.28689
2006-01-23 08:25:31 51°19.017 2°46.987 -999 3.192708 32.913251 -1.28689
2006-01-23 08:25:36 51°19.024 2°46.96 -999 3.193328 32.91845 -1.28689
2006-01-23 08:25:41 51°19.032 2°46.933 -999 3.197985 32.971623 -1.28689
2006-01-23 08:25:45 51°19.039 2°46.911 -999 3.197985 32.971623 -1.28689
2006-01-23 08:25:52 51°19.05 2°46.874 -999 3.194984 32.937355 -1.3206
2006-01-23 08:25:56 51°19.056 2°46.852 -999 3.195605 32.944444 -1.28689
2006-01-23 08:26:01 51°19.063 2°46.825 -999 3.194467 32.933338 -1.28689
2006-01-23 08:26:07 51°19.072 2°46.793 -999 3.19664 32.9591 -1.28689
2006-01-23 08:26:12 51°19.081 2°46.767 -999 3.198813 32.983918 -1.3206
2006-01-23 08:26:16 51°19.087 2°46.745 -999 3.198813 32.983918 -1.3206
2006-01-23 08:26:21 51°19.095 2°46.718 -999 3.192087 32.907107 -1.3206
2006-01-23 08:26:25 51°19.101 2°46.696 -999 3.197778 32.973993 -1.3206
2006-01-23 08:26:31 51°19.111 2°46.664 -999 3.196536 32.958864 -1.3206
2006-01-23 08:26:37 51°19.12 2°46.631 -999 3.197364 32.968319 -1.3206
2006-01-23 08:26:41 51°19.126 2°46.61 -999 3.196226 32.955319 -1.3206
2006-01-23 08:26:46 51°19.134 2°46.583 -999 3.196226 32.955319 -1.3206
2006-01-23 08:26:52 51°19.143 2°46.55 -999 3.198502 32.982267 -1.3206
2006-01-23 08:26:57 51°19.151 2°46.524 -999 3.192087 32.909942 -1.3206
2006-01-23 08:27:01 51°19.157 2°46.502 -999 3.19426 32.936649 -1.3206
2006-01-23 08:27:05 51°19.164 2°46.481 -999 3.197985 32.982987 -1.3206
2006-01-23 08:27:11 51°19.173 2°46.448 -999 3.197778 32.982518 -1.3206
2006-01-23 08:27:16 51°19.181 2°46.422 -999 3.197778 32.982518 -1.3206
2006-01-23 08:27:21 51°19.189 2°46.395 -999 3.190845 32.906158 -1.3206
2006-01-23 08:27:25 51°19.195 2°46.374 -999 3.188258 32.879446 -1.3206
2006-01-23 08:27:31 51°19.205 2°46.341 -999 3.193949 32.945404 -1.3206
2006-01-23 08:27:36 51°19.212 2°46.314 -999 3.183706 32.82745 -1.3206
2006-01-23 08:27:41 51°19.22 2°46.287 -999 3.195295 32.957933 -1.28689
2006-01-23 08:27:45 51°19.225 2°46.266 -999 3.195295 32.957933 -1.28689
2006-01-23 08:27:51 51°19.234 2°46.233 -999 3.190224 32.900957 -1.3206
2006-01-23 08:27:56 51°19.24 2°46.206 -999 3.196019 32.970945 -1.3206
2006-01-23 08:28:01 51°19.248 2°46.179 -999 3.190742 32.916323 -1.3206
2006-01-23 08:28:06 51°19.254 2°46.151 -999 3.190225 32.914195 -1.3206
2006-01-23 08:28:11 51°19.261 2°46.124 -999 3.192397 32.939975 -1.3206
2006-01-23 08:28:16 51°19.268 2°46.097 -999 3.192397 32.939975 -1.3206
2006-01-23 08:28:21 51°19.275 2°46.07 -999 3.195812 32.979003 -1.3206
2006-01-23 08:28:25 51°19.281 2°46.049 -999 3.194053 32.95795 -1.3206
2006-01-23 08:28:31 51°19.289 2°46.016 -999 3.197157 32.992484 -1.3206
2006-01-23 08:28:36 51°19.297 2°45.989 -999 3.198192 33.003363 -1.354309
2006-01-23 08:28:41 51°19.303 2°45.962 -999 3.197882 32.99697 -1.3206
2006-01-23 08:28:45 51°19.309 2°45.94 -999 3.197882 32.99697 -1.3206
2006-01-23 08:28:52 51°19.319 2°45.902 -999 3.198295 32.997908 -1.3206
2006-01-23 08:28:56 51°19.325 2°45.881 -999 3.19933 33.004992 -1.3206
2006-01-23 08:29:01 51°19.332 2°45.853 -999 3.19902 33.000497 -1.3206
2006-01-23 08:29:05 51°19.337 2°45.832 -999 3.197571 32.980153 -1.354309
2006-01-23 08:29:12 51°19.347 2°45.794 -999 3.200779 33.011115 -1.3206
2006-01-23 08:29:16 51°19.353 2°45.772 -999 3.200779 33.011115 -1.3206
2006-01-23 08:29:21 51°19.36 2°45.745 -999 3.198709 32.982736 -1.3206
2006-01-23 08:29:26 51°19.368 2°45.718 -999 3.202331 33.021262 -1.354309
2006-01-23 08:29:31 51°19.375 2°45.691 -999 3.202434 33.016756 -1.3206
2006-01-23 08:29:37 51°19.384 2°45.659 -999 3.208332 33.078431 -1.3206
2006-01-23 08:29:41 51°19.389 2°45.637 -999 3.202848 33.009165 -1.354309
2006-01-23 08:29:45 51°19.396 2°45.615 -999 3.202848 33.009165 -1.354309
2006-01-23 08:29:51 51°19.404 2°45.583 -999 3.210919 33.093734 -1.3206
2006-01-23 08:29:56 51°19.412 2°45.556 -999 3.211436 33.096793 -1.354309
2006-01-23 08:30:01 51°19.419 2°45.529 -999 3.209574 33.07363 -1.3206
2006-01-23 08:30:05 51°19.425 2°45.508 -999 3.213506 33.114725 -1.354309
2006-01-23 08:30:11 51°19.434 2°45.475 -999 3.213506 33.112826 -1.354309
2006-01-23 08:30:17 51°19.441 2°45.442 -999 3.213506 33.112826 -1.354309
2006-01-23 08:30:21 51°19.447 2°45.42 -999 3.214127 33.117065 -1.354309
2006-01-23 08:30:25 51°19.452 2°45.398 -999 3.21423 33.115397 -1.354309
2006-01-23 08:30:32 51°19.462 2°45.36 -999 3.215161 33.124128 -1.354309
2006-01-23 08:30:36 51°19.468 2°45.339 -999 3.217541 33.149396 -1.3206
2006-01-23 08:30:41 51°19.475 2°45.312 -999 3.219507 33.167087 -1.354309
2006-01-23 08:30:45 51°19.48 2°45.29 -999 3.219507 33.167087 -1.354309
2006-01-23 08:30:52 51°19.49 2°45.252 -999 3.221473 33.182872 -1.354309
2006-01-23 08:30:56 51°19.496 2°45.231 -999 3.219404 33.148801 -1.3206
2006-01-23 08:31:01 51°19.504 2°45.204 -999 3.228096 33.238468 -1.3206
2006-01-23 08:31:05 51°19.509 2°45.182 -999 3.226647 33.213376 -1.3206
2006-01-23 08:31:12 51°19.52 2°45.144 -999 3.224371 33.180759 -1.3206
2006-01-23 08:31:16 51°19.526 2°45.122 -999 3.224371 33.180759 -1.3206
2006-01-23 08:31:21 51°19.533 2°45.095 -999 3.226751 33.198396 -1.3206
2006-01-23 08:31:25 51°19.539 2°45.073 -999 3.232856 33.262302 -1.3206
2006-01-23 08:31:31 51°19.548 2°45.041 -999 3.230579 33.23159 -1.3206
2006-01-23 08:31:36 51°19.556 2°45.014 -999 3.232545 33.247346 -1.3206
2006-01-23 08:31:41 51°19.564 2°44.987 -999 3.23327 33.250847 -1.3206
2006-01-23 08:31:45 51°19.57 2°44.966 -999 3.23327 33.250847 -1.3206
2006-01-23 08:31:51 51°19.579 2°44.934 -999 3.236685 33.282155 -1.3206
2006-01-23 08:31:56 51°19.587 2°44.907 -999 3.235753 33.263932 -1.354309
2006-01-23 08:32:01 51°19.594 2°44.88 -999 3.237305 33.27591 -1.3206
2006-01-23 08:32:05 51°19.6 2°44.858 -999 3.242479 33.327241 -1.3206
2006-01-23 08:32:11 51°19.608 2°44.826 -999 3.239271 33.284992 -1.3206
2006-01-23 08:32:16 51°19.616 2°44.799 -999 3.239271 33.284992 -1.3206
2006-01-23 08:32:21 51°19.623 2°44.772 -999 3.242583 33.320803 -1.354309
2006-01-23 08:32:25 51°19.629 2°44.75 -999 3.235753 33.241127 -1.354309
2006-01-23 08:32:31 51°19.637 2°44.718 -999 3.242686 33.317223 -1.354309
2006-01-23 08:32:36 51°19.644 2°44.691 -999 3.238754 33.273396 -1.354309
2006-01-23 08:32:41 51°19.651 2°44.664 -999 3.241444 33.305936 -1.3206
2006-01-23 08:32:45 51°19.657 2°44.643 -999 3.241444 33.305936 -1.3206
2006-01-23 08:32:52 51°19.667 2°44.604 -999 3.241651 33.314002 -1.3206
2006-01-23 08:32:56 51°19.673 2°44.583 -999 3.241755 33.318037 -1.354309
2006-01-23 08:33:01 51°19.68 2°44.556 -999 3.237202 33.268076 -1.3206
2006-01-23 08:33:05 51°19.686 2°44.534 -999 3.233476 33.228498 -1.3206
2006-01-23 08:33:12 51°19.696 2°44.496 -999 3.235236 33.254235 -1.3206
2006-01-23 08:33:16 51°19.702 2°44.474 -999 3.235236 33.254235 -1.3206
2006-01-23 08:33:21 51°19.709 2°44.447 -999 3.239685 33.30969 -1.3206